<?xml version="1.0" encoding="UTF-8" standalone="no" ?>
<gpx xmlns="http://www.topografix.com/GPX/1/1" xmlns:xsi="http://www.w3.org/2001/XMLSchema-instance" xsi:schemaLocation="http://www.topografix.com/GPX/1/1 http://www.topografix.com/GPX/1/1/gpx.xsd" version="1.1" creator="VisuGPX - https://www.visugpx.com">
  <metadata>
    <name>13874614-Parcours 2022 50 kms</name>
  </metadata>
  <trk>
    <name><![CDATA[13874614-Parcours 2022 50 kms]]></name>
    <trkseg>
      <trkpt lat="46.59534" lon="-1.45328">
        <ele>55</ele>
        <time>2022-02-27T18:08:36Z</time>
      </trkpt>
      <trkpt lat="46.59539" lon="-1.45328">
        <ele>55</ele>
        <time>2022-02-27T18:08:37Z</time>
      </trkpt>
      <trkpt lat="46.59545" lon="-1.45318">
        <ele>55</ele>
        <time>2022-02-27T18:08:39Z</time>
      </trkpt>
      <trkpt lat="46.59557" lon="-1.4531">
        <ele>55</ele>
        <time>2022-02-27T18:08:42Z</time>
      </trkpt>
      <trkpt lat="46.59567" lon="-1.45299">
        <ele>55</ele>
        <time>2022-02-27T18:08:45Z</time>
      </trkpt>
      <trkpt lat="46.59561" lon="-1.45273">
        <ele>55</ele>
        <time>2022-02-27T18:08:50Z</time>
      </trkpt>
      <trkpt lat="46.5956" lon="-1.45255">
        <ele>54</ele>
        <time>2022-02-27T18:08:53Z</time>
      </trkpt>
      <trkpt lat="46.59565" lon="-1.45235">
        <ele>54</ele>
        <time>2022-02-27T18:08:56Z</time>
      </trkpt>
      <trkpt lat="46.59581" lon="-1.45225">
        <ele>54</ele>
        <time>2022-02-27T18:09:00Z</time>
      </trkpt>
      <trkpt lat="46.59597" lon="-1.45278">
        <ele>55</ele>
        <time>2022-02-27T18:09:09Z</time>
      </trkpt>
      <trkpt lat="46.59627" lon="-1.45268">
        <ele>55</ele>
        <time>2022-02-27T18:09:17Z</time>
      </trkpt>
      <trkpt lat="46.59639" lon="-1.45247">
        <ele>55</ele>
        <time>2022-02-27T18:09:21Z</time>
      </trkpt>
      <trkpt lat="46.59654" lon="-1.4524">
        <ele>55</ele>
        <time>2022-02-27T18:09:25Z</time>
      </trkpt>
      <trkpt lat="46.59651" lon="-1.45202">
        <ele>54</ele>
        <time>2022-02-27T18:09:31Z</time>
      </trkpt>
      <trkpt lat="46.59659" lon="-1.45196">
        <ele>54</ele>
        <time>2022-02-27T18:09:33Z</time>
      </trkpt>
      <trkpt lat="46.59668" lon="-1.45175">
        <ele>53</ele>
        <time>2022-02-27T18:09:37Z</time>
      </trkpt>
      <trkpt lat="46.59676" lon="-1.45163">
        <ele>53</ele>
        <time>2022-02-27T18:09:40Z</time>
      </trkpt>
      <trkpt lat="46.59671" lon="-1.45118">
        <ele>53</ele>
        <time>2022-02-27T18:09:47Z</time>
      </trkpt>
      <trkpt lat="46.59723" lon="-1.4512">
        <ele>55</ele>
        <time>2022-02-27T18:09:59Z</time>
      </trkpt>
      <trkpt lat="46.59727" lon="-1.45082">
        <ele>55</ele>
        <time>2022-02-27T18:10:05Z</time>
      </trkpt>
      <trkpt lat="46.59878" lon="-1.45048">
        <ele>59</ele>
        <time>2022-02-27T18:10:41Z</time>
      </trkpt>
      <trkpt lat="46.59917" lon="-1.45021">
        <ele>59</ele>
        <time>2022-02-27T18:10:51Z</time>
      </trkpt>
      <trkpt lat="46.59947" lon="-1.44975">
        <ele>57</ele>
        <time>2022-02-27T18:11:01Z</time>
      </trkpt>
      <trkpt lat="46.59962" lon="-1.44966">
        <ele>57</ele>
        <time>2022-02-27T18:11:05Z</time>
      </trkpt>
      <trkpt lat="46.6001" lon="-1.44964">
        <ele>56</ele>
        <time>2022-02-27T18:11:16Z</time>
      </trkpt>
      <trkpt lat="46.60028" lon="-1.44947">
        <ele>57</ele>
        <time>2022-02-27T18:11:21Z</time>
      </trkpt>
      <trkpt lat="46.60037" lon="-1.44905">
        <ele>57</ele>
        <time>2022-02-27T18:11:28Z</time>
      </trkpt>
      <trkpt lat="46.60056" lon="-1.4489">
        <ele>58</ele>
        <time>2022-02-27T18:11:33Z</time>
      </trkpt>
      <trkpt lat="46.60082" lon="-1.44908">
        <ele>59</ele>
        <time>2022-02-27T18:11:40Z</time>
      </trkpt>
      <trkpt lat="46.60123" lon="-1.44928">
        <ele>60</ele>
        <time>2022-02-27T18:11:50Z</time>
      </trkpt>
      <trkpt lat="46.60214" lon="-1.44838">
        <ele>59</ele>
        <time>2022-02-27T18:12:16Z</time>
      </trkpt>
      <trkpt lat="46.60231" lon="-1.44817">
        <ele>59</ele>
        <time>2022-02-27T18:12:21Z</time>
      </trkpt>
      <trkpt lat="46.60163" lon="-1.44617">
        <ele>52</ele>
        <time>2022-02-27T18:12:57Z</time>
      </trkpt>
      <trkpt lat="46.60162" lon="-1.44586">
        <ele>50</ele>
        <time>2022-02-27T18:13:02Z</time>
      </trkpt>
      <trkpt lat="46.60172" lon="-1.44574">
        <ele>50</ele>
        <time>2022-02-27T18:13:05Z</time>
      </trkpt>
      <trkpt lat="46.60215" lon="-1.4457">
        <ele>49</ele>
        <time>2022-02-27T18:13:15Z</time>
      </trkpt>
      <trkpt lat="46.60247" lon="-1.44551">
        <ele>48</ele>
        <time>2022-02-27T18:13:23Z</time>
      </trkpt>
      <trkpt lat="46.60308" lon="-1.44483">
        <ele>47</ele>
        <time>2022-02-27T18:13:41Z</time>
      </trkpt>
      <trkpt lat="46.60317" lon="-1.44446">
        <ele>46</ele>
        <time>2022-02-27T18:13:47Z</time>
      </trkpt>
      <trkpt lat="46.60413" lon="-1.44482">
        <ele>48</ele>
        <time>2022-02-27T18:14:10Z</time>
      </trkpt>
      <trkpt lat="46.60422" lon="-1.44511">
        <ele>49</ele>
        <time>2022-02-27T18:14:15Z</time>
      </trkpt>
      <trkpt lat="46.60442" lon="-1.44452">
        <ele>47</ele>
        <time>2022-02-27T18:14:26Z</time>
      </trkpt>
      <trkpt lat="46.60458" lon="-1.44452">
        <ele>47</ele>
        <time>2022-02-27T18:14:30Z</time>
      </trkpt>
      <trkpt lat="46.60496" lon="-1.44431">
        <ele>46</ele>
        <time>2022-02-27T18:14:39Z</time>
      </trkpt>
      <trkpt lat="46.60555" lon="-1.44405">
        <ele>47</ele>
        <time>2022-02-27T18:14:54Z</time>
      </trkpt>
      <trkpt lat="46.60593" lon="-1.44383">
        <ele>47</ele>
        <time>2022-02-27T18:15:03Z</time>
      </trkpt>
      <trkpt lat="46.60619" lon="-1.44363">
        <ele>47</ele>
        <time>2022-02-27T18:15:10Z</time>
      </trkpt>
      <trkpt lat="46.6064" lon="-1.44407">
        <ele>47</ele>
        <time>2022-02-27T18:15:19Z</time>
      </trkpt>
      <trkpt lat="46.60653" lon="-1.44426">
        <ele>47</ele>
        <time>2022-02-27T18:15:23Z</time>
      </trkpt>
      <trkpt lat="46.60665" lon="-1.44381">
        <ele>47</ele>
        <time>2022-02-27T18:15:31Z</time>
      </trkpt>
      <trkpt lat="46.60665" lon="-1.44343">
        <ele>46</ele>
        <time>2022-02-27T18:15:37Z</time>
      </trkpt>
      <trkpt lat="46.60671" lon="-1.44264">
        <ele>45</ele>
        <time>2022-02-27T18:15:49Z</time>
      </trkpt>
      <trkpt lat="46.60506" lon="-1.43697">
        <ele>63</ele>
        <time>2022-02-27T18:17:28Z</time>
      </trkpt>
      <trkpt lat="46.60566" lon="-1.43635">
        <ele>65</ele>
        <time>2022-02-27T18:17:45Z</time>
      </trkpt>
      <trkpt lat="46.60412" lon="-1.4336">
        <ele>70</ele>
        <time>2022-02-27T18:18:42Z</time>
      </trkpt>
      <trkpt lat="46.60288" lon="-1.43247">
        <ele>70</ele>
        <time>2022-02-27T18:19:17Z</time>
      </trkpt>
      <trkpt lat="46.60199" lon="-1.4309">
        <ele>67</ele>
        <time>2022-02-27T18:19:49Z</time>
      </trkpt>
      <trkpt lat="46.60077" lon="-1.42929">
        <ele>66</ele>
        <time>2022-02-27T18:20:28Z</time>
      </trkpt>
      <trkpt lat="46.59998" lon="-1.42528">
        <ele>65</ele>
        <time>2022-02-27T18:21:35Z</time>
      </trkpt>
      <trkpt lat="46.59985" lon="-1.42413">
        <ele>65</ele>
        <time>2022-02-27T18:21:53Z</time>
      </trkpt>
      <trkpt lat="46.59942" lon="-1.42271">
        <ele>65</ele>
        <time>2022-02-27T18:22:18Z</time>
      </trkpt>
      <trkpt lat="46.60018" lon="-1.42206">
        <ele>65</ele>
        <time>2022-02-27T18:22:39Z</time>
      </trkpt>
      <trkpt lat="46.60147" lon="-1.42162">
        <ele>63</ele>
        <time>2022-02-27T18:23:10Z</time>
      </trkpt>
      <trkpt lat="46.60094" lon="-1.42038">
        <ele>63</ele>
        <time>2022-02-27T18:23:33Z</time>
      </trkpt>
      <trkpt lat="46.60194" lon="-1.41973">
        <ele>59</ele>
        <time>2022-02-27T18:23:59Z</time>
      </trkpt>
      <trkpt lat="46.60282" lon="-1.41939">
        <ele>57</ele>
        <time>2022-02-27T18:24:20Z</time>
      </trkpt>
      <trkpt lat="46.6034" lon="-1.41877">
        <ele>56</ele>
        <time>2022-02-27T18:24:37Z</time>
      </trkpt>
      <trkpt lat="46.60427" lon="-1.41745">
        <ele>56</ele>
        <time>2022-02-27T18:25:06Z</time>
      </trkpt>
      <trkpt lat="46.60477" lon="-1.41808">
        <ele>56</ele>
        <time>2022-02-27T18:25:22Z</time>
      </trkpt>
      <trkpt lat="46.60561" lon="-1.41941">
        <ele>58</ele>
        <time>2022-02-27T18:25:51Z</time>
      </trkpt>
      <trkpt lat="46.60592" lon="-1.4204">
        <ele>59</ele>
        <time>2022-02-27T18:26:08Z</time>
      </trkpt>
      <trkpt lat="46.60637" lon="-1.41955">
        <ele>58</ele>
        <time>2022-02-27T18:26:25Z</time>
      </trkpt>
      <trkpt lat="46.60658" lon="-1.4191">
        <ele>57</ele>
        <time>2022-02-27T18:26:34Z</time>
      </trkpt>
      <trkpt lat="46.60595" lon="-1.41872">
        <ele>57</ele>
        <time>2022-02-27T18:26:50Z</time>
      </trkpt>
      <trkpt lat="46.60448" lon="-1.41735">
        <ele>55</ele>
        <time>2022-02-27T18:27:31Z</time>
      </trkpt>
      <trkpt lat="46.60339" lon="-1.41583">
        <ele>55</ele>
        <time>2022-02-27T18:28:06Z</time>
      </trkpt>
      <trkpt lat="46.60282" lon="-1.41469">
        <ele>57</ele>
        <time>2022-02-27T18:28:29Z</time>
      </trkpt>
      <trkpt lat="46.60151" lon="-1.41383">
        <ele>60</ele>
        <time>2022-02-27T18:29:02Z</time>
      </trkpt>
      <trkpt lat="46.60059" lon="-1.41358">
        <ele>62</ele>
        <time>2022-02-27T18:29:24Z</time>
      </trkpt>
      <trkpt lat="46.59915" lon="-1.41214">
        <ele>64</ele>
        <time>2022-02-27T18:30:05Z</time>
      </trkpt>
      <trkpt lat="46.59866" lon="-1.41177">
        <ele>66</ele>
        <time>2022-02-27T18:30:18Z</time>
      </trkpt>
      <trkpt lat="46.59886" lon="-1.41164">
        <ele>66</ele>
        <time>2022-02-27T18:30:23Z</time>
      </trkpt>
      <trkpt lat="46.59922" lon="-1.41127">
        <ele>66</ele>
        <time>2022-02-27T18:30:33Z</time>
      </trkpt>
      <trkpt lat="46.59887" lon="-1.4107">
        <ele>66</ele>
        <time>2022-02-27T18:30:45Z</time>
      </trkpt>
      <trkpt lat="46.59893" lon="-1.41003">
        <ele>66</ele>
        <time>2022-02-27T18:30:56Z</time>
      </trkpt>
      <trkpt lat="46.59875" lon="-1.40937">
        <ele>65</ele>
        <time>2022-02-27T18:31:08Z</time>
      </trkpt>
      <trkpt lat="46.59856" lon="-1.40882">
        <ele>65</ele>
        <time>2022-02-27T18:31:17Z</time>
      </trkpt>
      <trkpt lat="46.59852" lon="-1.40785">
        <ele>64</ele>
        <time>2022-02-27T18:31:33Z</time>
      </trkpt>
      <trkpt lat="46.59837" lon="-1.40696">
        <ele>65</ele>
        <time>2022-02-27T18:31:48Z</time>
      </trkpt>
      <trkpt lat="46.5982" lon="-1.40609">
        <ele>63</ele>
        <time>2022-02-27T18:32:02Z</time>
      </trkpt>
      <trkpt lat="46.59794" lon="-1.40506">
        <ele>60</ele>
        <time>2022-02-27T18:32:20Z</time>
      </trkpt>
      <trkpt lat="46.59777" lon="-1.4042">
        <ele>56</ele>
        <time>2022-02-27T18:32:34Z</time>
      </trkpt>
      <trkpt lat="46.59768" lon="-1.40387">
        <ele>56</ele>
        <time>2022-02-27T18:32:40Z</time>
      </trkpt>
      <trkpt lat="46.59799" lon="-1.40201">
        <ele>60</ele>
        <time>2022-02-27T18:33:11Z</time>
      </trkpt>
      <trkpt lat="46.59842" lon="-1.40138">
        <ele>60</ele>
        <time>2022-02-27T18:33:25Z</time>
      </trkpt>
      <trkpt lat="46.59853" lon="-1.40072">
        <ele>60</ele>
        <time>2022-02-27T18:33:36Z</time>
      </trkpt>
      <trkpt lat="46.59819" lon="-1.39992">
        <ele>61</ele>
        <time>2022-02-27T18:33:51Z</time>
      </trkpt>
      <trkpt lat="46.59786" lon="-1.39937">
        <ele>59</ele>
        <time>2022-02-27T18:34:03Z</time>
      </trkpt>
      <trkpt lat="46.59755" lon="-1.39867">
        <ele>60</ele>
        <time>2022-02-27T18:34:16Z</time>
      </trkpt>
      <trkpt lat="46.59657" lon="-1.39754">
        <ele>52</ele>
        <time>2022-02-27T18:34:45Z</time>
      </trkpt>
      <trkpt lat="46.59602" lon="-1.39731">
        <ele>48</ele>
        <time>2022-02-27T18:34:58Z</time>
      </trkpt>
      <trkpt lat="46.59668" lon="-1.39733">
        <ele>51</ele>
        <time>2022-02-27T18:35:14Z</time>
      </trkpt>
      <trkpt lat="46.59768" lon="-1.39716">
        <ele>56</ele>
        <time>2022-02-27T18:35:37Z</time>
      </trkpt>
      <trkpt lat="46.59865" lon="-1.39674">
        <ele>56</ele>
        <time>2022-02-27T18:36:01Z</time>
      </trkpt>
      <trkpt lat="46.60006" lon="-1.39637">
        <ele>58</ele>
        <time>2022-02-27T18:36:35Z</time>
      </trkpt>
      <trkpt lat="46.60019" lon="-1.39536">
        <ele>55</ele>
        <time>2022-02-27T18:36:51Z</time>
      </trkpt>
      <trkpt lat="46.60013" lon="-1.39433">
        <ele>53</ele>
        <time>2022-02-27T18:37:08Z</time>
      </trkpt>
      <trkpt lat="46.60032" lon="-1.39303">
        <ele>51</ele>
        <time>2022-02-27T18:37:29Z</time>
      </trkpt>
      <trkpt lat="46.60061" lon="-1.39272">
        <ele>51</ele>
        <time>2022-02-27T18:37:37Z</time>
      </trkpt>
      <trkpt lat="46.6018" lon="-1.39215">
        <ele>53</ele>
        <time>2022-02-27T18:38:07Z</time>
      </trkpt>
      <trkpt lat="46.60168" lon="-1.39154">
        <ele>53</ele>
        <time>2022-02-27T18:38:17Z</time>
      </trkpt>
      <trkpt lat="46.60156" lon="-1.38946">
        <ele>51</ele>
        <time>2022-02-27T18:38:50Z</time>
      </trkpt>
      <trkpt lat="46.60454" lon="-1.39091">
        <ele>35</ele>
        <time>2022-02-27T18:40:04Z</time>
      </trkpt>
      <trkpt lat="46.60467" lon="-1.39134">
        <ele>36</ele>
        <time>2022-02-27T18:40:11Z</time>
      </trkpt>
      <trkpt lat="46.60496" lon="-1.39168">
        <ele>34</ele>
        <time>2022-02-27T18:40:20Z</time>
      </trkpt>
      <trkpt lat="46.60521" lon="-1.39227">
        <ele>35</ele>
        <time>2022-02-27T18:40:31Z</time>
      </trkpt>
      <trkpt lat="46.60541" lon="-1.39267">
        <ele>36</ele>
        <time>2022-02-27T18:40:39Z</time>
      </trkpt>
      <trkpt lat="46.60563" lon="-1.39256">
        <ele>36</ele>
        <time>2022-02-27T18:40:44Z</time>
      </trkpt>
      <trkpt lat="46.60573" lon="-1.39265">
        <ele>36</ele>
        <time>2022-02-27T18:40:47Z</time>
      </trkpt>
      <trkpt lat="46.60563" lon="-1.39282">
        <ele>36</ele>
        <time>2022-02-27T18:40:51Z</time>
      </trkpt>
      <trkpt lat="46.60587" lon="-1.39382">
        <ele>37</ele>
        <time>2022-02-27T18:41:08Z</time>
      </trkpt>
      <trkpt lat="46.60588" lon="-1.39394">
        <ele>37</ele>
        <time>2022-02-27T18:41:10Z</time>
      </trkpt>
      <trkpt lat="46.60611" lon="-1.39378">
        <ele>36</ele>
        <time>2022-02-27T18:41:16Z</time>
      </trkpt>
      <trkpt lat="46.60617" lon="-1.39365">
        <ele>36</ele>
        <time>2022-02-27T18:41:18Z</time>
      </trkpt>
      <trkpt lat="46.60622" lon="-1.39322">
        <ele>36</ele>
        <time>2022-02-27T18:41:25Z</time>
      </trkpt>
      <trkpt lat="46.60615" lon="-1.39275">
        <ele>36</ele>
        <time>2022-02-27T18:41:33Z</time>
      </trkpt>
      <trkpt lat="46.60621" lon="-1.39252">
        <ele>36</ele>
        <time>2022-02-27T18:41:37Z</time>
      </trkpt>
      <trkpt lat="46.60655" lon="-1.39222">
        <ele>35</ele>
        <time>2022-02-27T18:41:46Z</time>
      </trkpt>
      <trkpt lat="46.60678" lon="-1.39208">
        <ele>35</ele>
        <time>2022-02-27T18:41:52Z</time>
      </trkpt>
      <trkpt lat="46.60674" lon="-1.39185">
        <ele>35</ele>
        <time>2022-02-27T18:41:56Z</time>
      </trkpt>
      <trkpt lat="46.60654" lon="-1.39124">
        <ele>34</ele>
        <time>2022-02-27T18:42:07Z</time>
      </trkpt>
      <trkpt lat="46.60681" lon="-1.39069">
        <ele>35</ele>
        <time>2022-02-27T18:42:17Z</time>
      </trkpt>
      <trkpt lat="46.60756" lon="-1.38978">
        <ele>38</ele>
        <time>2022-02-27T18:42:40Z</time>
      </trkpt>
      <trkpt lat="46.60842" lon="-1.38845">
        <ele>39</ele>
        <time>2022-02-27T18:43:09Z</time>
      </trkpt>
      <trkpt lat="46.60887" lon="-1.38771">
        <ele>40</ele>
        <time>2022-02-27T18:43:25Z</time>
      </trkpt>
      <trkpt lat="46.60917" lon="-1.38665">
        <ele>43</ele>
        <time>2022-02-27T18:43:44Z</time>
      </trkpt>
      <trkpt lat="46.60948" lon="-1.38584">
        <ele>47</ele>
        <time>2022-02-27T18:43:59Z</time>
      </trkpt>
      <trkpt lat="46.60943" lon="-1.38568">
        <ele>47</ele>
        <time>2022-02-27T18:44:01Z</time>
      </trkpt>
      <trkpt lat="46.6093" lon="-1.3856">
        <ele>46</ele>
        <time>2022-02-27T18:44:05Z</time>
      </trkpt>
      <trkpt lat="46.60875" lon="-1.38552">
        <ele>41</ele>
        <time>2022-02-27T18:44:18Z</time>
      </trkpt>
      <trkpt lat="46.60802" lon="-1.38545">
        <ele>37</ele>
        <time>2022-02-27T18:44:35Z</time>
      </trkpt>
      <trkpt lat="46.60797" lon="-1.38533">
        <ele>37</ele>
        <time>2022-02-27T18:44:37Z</time>
      </trkpt>
      <trkpt lat="46.60796" lon="-1.38494">
        <ele>37</ele>
        <time>2022-02-27T18:44:43Z</time>
      </trkpt>
      <trkpt lat="46.60791" lon="-1.38446">
        <ele>37</ele>
        <time>2022-02-27T18:44:51Z</time>
      </trkpt>
      <trkpt lat="46.6077" lon="-1.38339">
        <ele>36</ele>
        <time>2022-02-27T18:45:09Z</time>
      </trkpt>
      <trkpt lat="46.6077" lon="-1.38313">
        <ele>36</ele>
        <time>2022-02-27T18:45:13Z</time>
      </trkpt>
      <trkpt lat="46.60778" lon="-1.38288">
        <ele>37</ele>
        <time>2022-02-27T18:45:17Z</time>
      </trkpt>
      <trkpt lat="46.6078" lon="-1.38267">
        <ele>37</ele>
        <time>2022-02-27T18:45:21Z</time>
      </trkpt>
      <trkpt lat="46.60778" lon="-1.38255">
        <ele>37</ele>
        <time>2022-02-27T18:45:23Z</time>
      </trkpt>
      <trkpt lat="46.60718" lon="-1.38159">
        <ele>36</ele>
        <time>2022-02-27T18:45:44Z</time>
      </trkpt>
      <trkpt lat="46.60696" lon="-1.38036">
        <ele>36</ele>
        <time>2022-02-27T18:46:04Z</time>
      </trkpt>
      <trkpt lat="46.60629" lon="-1.37856">
        <ele>37</ele>
        <time>2022-02-27T18:46:37Z</time>
      </trkpt>
      <trkpt lat="46.60628" lon="-1.37833">
        <ele>38</ele>
        <time>2022-02-27T18:46:41Z</time>
      </trkpt>
      <trkpt lat="46.60596" lon="-1.37755">
        <ele>39</ele>
        <time>2022-02-27T18:46:55Z</time>
      </trkpt>
      <trkpt lat="46.60591" lon="-1.37727">
        <ele>40</ele>
        <time>2022-02-27T18:47:00Z</time>
      </trkpt>
      <trkpt lat="46.60568" lon="-1.37696">
        <ele>40</ele>
        <time>2022-02-27T18:47:07Z</time>
      </trkpt>
      <trkpt lat="46.6056" lon="-1.37673">
        <ele>41</ele>
        <time>2022-02-27T18:47:11Z</time>
      </trkpt>
      <trkpt lat="46.60556" lon="-1.37649">
        <ele>42</ele>
        <time>2022-02-27T18:47:15Z</time>
      </trkpt>
      <trkpt lat="46.60558" lon="-1.37598">
        <ele>43</ele>
        <time>2022-02-27T18:47:23Z</time>
      </trkpt>
      <trkpt lat="46.60555" lon="-1.37519">
        <ele>45</ele>
        <time>2022-02-27T18:47:36Z</time>
      </trkpt>
      <trkpt lat="46.60546" lon="-1.37488">
        <ele>46</ele>
        <time>2022-02-27T18:47:42Z</time>
      </trkpt>
      <trkpt lat="46.60527" lon="-1.37478">
        <ele>46</ele>
        <time>2022-02-27T18:47:46Z</time>
      </trkpt>
      <trkpt lat="46.60498" lon="-1.37455">
        <ele>46</ele>
        <time>2022-02-27T18:47:54Z</time>
      </trkpt>
      <trkpt lat="46.60476" lon="-1.37426">
        <ele>49</ele>
        <time>2022-02-27T18:48:01Z</time>
      </trkpt>
      <trkpt lat="46.60439" lon="-1.37416">
        <ele>52</ele>
        <time>2022-02-27T18:48:10Z</time>
      </trkpt>
      <trkpt lat="46.60411" lon="-1.37395">
        <ele>53</ele>
        <time>2022-02-27T18:48:17Z</time>
      </trkpt>
      <trkpt lat="46.60335" lon="-1.37367">
        <ele>58</ele>
        <time>2022-02-27T18:48:35Z</time>
      </trkpt>
      <trkpt lat="46.60264" lon="-1.3735">
        <ele>62</ele>
        <time>2022-02-27T18:48:52Z</time>
      </trkpt>
      <trkpt lat="46.60211" lon="-1.37331">
        <ele>65</ele>
        <time>2022-02-27T18:49:05Z</time>
      </trkpt>
      <trkpt lat="46.60061" lon="-1.37347">
        <ele>68</ele>
        <time>2022-02-27T18:49:40Z</time>
      </trkpt>
      <trkpt lat="46.59992" lon="-1.37315">
        <ele>66</ele>
        <time>2022-02-27T18:49:57Z</time>
      </trkpt>
      <trkpt lat="46.59963" lon="-1.37304">
        <ele>64</ele>
        <time>2022-02-27T18:50:04Z</time>
      </trkpt>
      <trkpt lat="46.59951" lon="-1.37309">
        <ele>63</ele>
        <time>2022-02-27T18:50:07Z</time>
      </trkpt>
      <trkpt lat="46.60039" lon="-1.37515">
        <ele>59</ele>
        <time>2022-02-27T18:50:46Z</time>
      </trkpt>
      <trkpt lat="46.60001" lon="-1.37584">
        <ele>53</ele>
        <time>2022-02-27T18:51:00Z</time>
      </trkpt>
      <trkpt lat="46.60011" lon="-1.37607">
        <ele>51</ele>
        <time>2022-02-27T18:51:04Z</time>
      </trkpt>
      <trkpt lat="46.59984" lon="-1.37684">
        <ele>43</ele>
        <time>2022-02-27T18:51:18Z</time>
      </trkpt>
      <trkpt lat="46.59925" lon="-1.37735">
        <ele>38</ele>
        <time>2022-02-27T18:51:34Z</time>
      </trkpt>
      <trkpt lat="46.59824" lon="-1.37799">
        <ele>34</ele>
        <time>2022-02-27T18:52:00Z</time>
      </trkpt>
      <trkpt lat="46.59754" lon="-1.37851">
        <ele>33</ele>
        <time>2022-02-27T18:52:18Z</time>
      </trkpt>
      <trkpt lat="46.59728" lon="-1.37896">
        <ele>32</ele>
        <time>2022-02-27T18:52:28Z</time>
      </trkpt>
      <trkpt lat="46.59674" lon="-1.37917">
        <ele>33</ele>
        <time>2022-02-27T18:52:41Z</time>
      </trkpt>
      <trkpt lat="46.59663" lon="-1.37943">
        <ele>34</ele>
        <time>2022-02-27T18:52:46Z</time>
      </trkpt>
      <trkpt lat="46.59611" lon="-1.37929">
        <ele>33</ele>
        <time>2022-02-27T18:52:58Z</time>
      </trkpt>
      <trkpt lat="46.59566" lon="-1.37863">
        <ele>33</ele>
        <time>2022-02-27T18:53:13Z</time>
      </trkpt>
      <trkpt lat="46.59445" lon="-1.37803">
        <ele>42</ele>
        <time>2022-02-27T18:53:43Z</time>
      </trkpt>
      <trkpt lat="46.59394" lon="-1.37662">
        <ele>39</ele>
        <time>2022-02-27T18:54:08Z</time>
      </trkpt>
      <trkpt lat="46.59315" lon="-1.37769">
        <ele>49</ele>
        <time>2022-02-27T18:54:34Z</time>
      </trkpt>
      <trkpt lat="46.59275" lon="-1.37687">
        <ele>50</ele>
        <time>2022-02-27T18:54:50Z</time>
      </trkpt>
      <trkpt lat="46.59232" lon="-1.37645">
        <ele>48</ele>
        <time>2022-02-27T18:55:02Z</time>
      </trkpt>
      <trkpt lat="46.59196" lon="-1.37621">
        <ele>47</ele>
        <time>2022-02-27T18:55:11Z</time>
      </trkpt>
      <trkpt lat="46.59112" lon="-1.37624">
        <ele>48</ele>
        <time>2022-02-27T18:55:31Z</time>
      </trkpt>
      <trkpt lat="46.59077" lon="-1.37614">
        <ele>48</ele>
        <time>2022-02-27T18:55:39Z</time>
      </trkpt>
      <trkpt lat="46.59028" lon="-1.37691">
        <ele>52</ele>
        <time>2022-02-27T18:55:56Z</time>
      </trkpt>
      <trkpt lat="46.58972" lon="-1.37594">
        <ele>49</ele>
        <time>2022-02-27T18:56:16Z</time>
      </trkpt>
      <trkpt lat="46.58898" lon="-1.37542">
        <ele>42</ele>
        <time>2022-02-27T18:56:35Z</time>
      </trkpt>
      <trkpt lat="46.58821" lon="-1.37497">
        <ele>38</ele>
        <time>2022-02-27T18:56:55Z</time>
      </trkpt>
      <trkpt lat="46.58781" lon="-1.375">
        <ele>41</ele>
        <time>2022-02-27T18:57:04Z</time>
      </trkpt>
      <trkpt lat="46.58744" lon="-1.37517">
        <ele>45</ele>
        <time>2022-02-27T18:57:13Z</time>
      </trkpt>
      <trkpt lat="46.58669" lon="-1.37481">
        <ele>53</ele>
        <time>2022-02-27T18:57:32Z</time>
      </trkpt>
      <trkpt lat="46.58659" lon="-1.37451">
        <ele>54</ele>
        <time>2022-02-27T18:57:37Z</time>
      </trkpt>
      <trkpt lat="46.58614" lon="-1.37244">
        <ele>56</ele>
        <time>2022-02-27T18:58:12Z</time>
      </trkpt>
      <trkpt lat="46.586" lon="-1.37199">
        <ele>55</ele>
        <time>2022-02-27T18:58:20Z</time>
      </trkpt>
      <trkpt lat="46.58601" lon="-1.37098">
        <ele>54</ele>
        <time>2022-02-27T18:58:36Z</time>
      </trkpt>
      <trkpt lat="46.58579" lon="-1.37056">
        <ele>52</ele>
        <time>2022-02-27T18:58:44Z</time>
      </trkpt>
      <trkpt lat="46.58529" lon="-1.36996">
        <ele>48</ele>
        <time>2022-02-27T18:59:00Z</time>
      </trkpt>
      <trkpt lat="46.58534" lon="-1.36954">
        <ele>46</ele>
        <time>2022-02-27T18:59:06Z</time>
      </trkpt>
      <trkpt lat="46.5853" lon="-1.36922">
        <ele>46</ele>
        <time>2022-02-27T18:59:12Z</time>
      </trkpt>
      <trkpt lat="46.58534" lon="-1.36896">
        <ele>45</ele>
        <time>2022-02-27T18:59:16Z</time>
      </trkpt>
      <trkpt lat="46.58546" lon="-1.36843">
        <ele>44</ele>
        <time>2022-02-27T18:59:25Z</time>
      </trkpt>
      <trkpt lat="46.58572" lon="-1.36789">
        <ele>42</ele>
        <time>2022-02-27T18:59:35Z</time>
      </trkpt>
      <trkpt lat="46.58587" lon="-1.36739">
        <ele>40</ele>
        <time>2022-02-27T18:59:44Z</time>
      </trkpt>
      <trkpt lat="46.58593" lon="-1.36608">
        <ele>37</ele>
        <time>2022-02-27T19:00:05Z</time>
      </trkpt>
      <trkpt lat="46.58606" lon="-1.36564">
        <ele>36</ele>
        <time>2022-02-27T19:00:13Z</time>
      </trkpt>
      <trkpt lat="46.58635" lon="-1.36499">
        <ele>35</ele>
        <time>2022-02-27T19:00:25Z</time>
      </trkpt>
      <trkpt lat="46.58645" lon="-1.36471">
        <ele>34</ele>
        <time>2022-02-27T19:00:30Z</time>
      </trkpt>
      <trkpt lat="46.58646" lon="-1.36452">
        <ele>34</ele>
        <time>2022-02-27T19:00:33Z</time>
      </trkpt>
      <trkpt lat="46.58684" lon="-1.36458">
        <ele>33</ele>
        <time>2022-02-27T19:00:42Z</time>
      </trkpt>
      <trkpt lat="46.5871" lon="-1.36491">
        <ele>33</ele>
        <time>2022-02-27T19:00:50Z</time>
      </trkpt>
      <trkpt lat="46.58724" lon="-1.36533">
        <ele>33</ele>
        <time>2022-02-27T19:00:58Z</time>
      </trkpt>
      <trkpt lat="46.58727" lon="-1.36579">
        <ele>33</ele>
        <time>2022-02-27T19:01:05Z</time>
      </trkpt>
      <trkpt lat="46.58756" lon="-1.36559">
        <ele>32</ele>
        <time>2022-02-27T19:01:13Z</time>
      </trkpt>
      <trkpt lat="46.58774" lon="-1.36541">
        <ele>32</ele>
        <time>2022-02-27T19:01:18Z</time>
      </trkpt>
      <trkpt lat="46.58789" lon="-1.36538">
        <ele>31</ele>
        <time>2022-02-27T19:01:22Z</time>
      </trkpt>
      <trkpt lat="46.58802" lon="-1.36542">
        <ele>31</ele>
        <time>2022-02-27T19:01:25Z</time>
      </trkpt>
      <trkpt lat="46.58824" lon="-1.3656">
        <ele>31</ele>
        <time>2022-02-27T19:01:31Z</time>
      </trkpt>
      <trkpt lat="46.58835" lon="-1.36589">
        <ele>31</ele>
        <time>2022-02-27T19:01:36Z</time>
      </trkpt>
      <trkpt lat="46.5884" lon="-1.36623">
        <ele>32</ele>
        <time>2022-02-27T19:01:41Z</time>
      </trkpt>
      <trkpt lat="46.58832" lon="-1.36677">
        <ele>32</ele>
        <time>2022-02-27T19:01:50Z</time>
      </trkpt>
      <trkpt lat="46.58835" lon="-1.36693">
        <ele>32</ele>
        <time>2022-02-27T19:01:53Z</time>
      </trkpt>
      <trkpt lat="46.58855" lon="-1.36724">
        <ele>33</ele>
        <time>2022-02-27T19:02:00Z</time>
      </trkpt>
      <trkpt lat="46.58868" lon="-1.36734">
        <ele>33</ele>
        <time>2022-02-27T19:02:03Z</time>
      </trkpt>
      <trkpt lat="46.58883" lon="-1.36737">
        <ele>34</ele>
        <time>2022-02-27T19:02:07Z</time>
      </trkpt>
      <trkpt lat="46.58904" lon="-1.36734">
        <ele>35</ele>
        <time>2022-02-27T19:02:12Z</time>
      </trkpt>
      <trkpt lat="46.58968" lon="-1.36699">
        <ele>41</ele>
        <time>2022-02-27T19:02:28Z</time>
      </trkpt>
      <trkpt lat="46.5899" lon="-1.36693">
        <ele>43</ele>
        <time>2022-02-27T19:02:33Z</time>
      </trkpt>
      <trkpt lat="46.59024" lon="-1.36663">
        <ele>45</ele>
        <time>2022-02-27T19:02:42Z</time>
      </trkpt>
      <trkpt lat="46.59044" lon="-1.36633">
        <ele>46</ele>
        <time>2022-02-27T19:02:49Z</time>
      </trkpt>
      <trkpt lat="46.59058" lon="-1.36604">
        <ele>47</ele>
        <time>2022-02-27T19:02:55Z</time>
      </trkpt>
      <trkpt lat="46.59076" lon="-1.36549">
        <ele>50</ele>
        <time>2022-02-27T19:03:04Z</time>
      </trkpt>
      <trkpt lat="46.59086" lon="-1.36498">
        <ele>51</ele>
        <time>2022-02-27T19:03:13Z</time>
      </trkpt>
      <trkpt lat="46.59088" lon="-1.36431">
        <ele>49</ele>
        <time>2022-02-27T19:03:24Z</time>
      </trkpt>
      <trkpt lat="46.59073" lon="-1.3642">
        <ele>48</ele>
        <time>2022-02-27T19:03:27Z</time>
      </trkpt>
      <trkpt lat="46.59061" lon="-1.36385">
        <ele>48</ele>
        <time>2022-02-27T19:03:34Z</time>
      </trkpt>
      <trkpt lat="46.59055" lon="-1.36325">
        <ele>48</ele>
        <time>2022-02-27T19:03:44Z</time>
      </trkpt>
      <trkpt lat="46.59057" lon="-1.36287">
        <ele>49</ele>
        <time>2022-02-27T19:03:50Z</time>
      </trkpt>
      <trkpt lat="46.59037" lon="-1.36187">
        <ele>51</ele>
        <time>2022-02-27T19:04:06Z</time>
      </trkpt>
      <trkpt lat="46.5903" lon="-1.36082">
        <ele>53</ele>
        <time>2022-02-27T19:04:23Z</time>
      </trkpt>
      <trkpt lat="46.59038" lon="-1.3601">
        <ele>54</ele>
        <time>2022-02-27T19:04:35Z</time>
      </trkpt>
      <trkpt lat="46.59053" lon="-1.35985">
        <ele>54</ele>
        <time>2022-02-27T19:04:40Z</time>
      </trkpt>
      <trkpt lat="46.59066" lon="-1.3592">
        <ele>55</ele>
        <time>2022-02-27T19:04:51Z</time>
      </trkpt>
      <trkpt lat="46.59056" lon="-1.35881">
        <ele>57</ele>
        <time>2022-02-27T19:04:58Z</time>
      </trkpt>
      <trkpt lat="46.58994" lon="-1.35737">
        <ele>60</ele>
        <time>2022-02-27T19:05:25Z</time>
      </trkpt>
      <trkpt lat="46.58967" lon="-1.35745">
        <ele>60</ele>
        <time>2022-02-27T19:05:32Z</time>
      </trkpt>
      <trkpt lat="46.58934" lon="-1.3576">
        <ele>61</ele>
        <time>2022-02-27T19:05:40Z</time>
      </trkpt>
      <trkpt lat="46.58911" lon="-1.35783">
        <ele>62</ele>
        <time>2022-02-27T19:05:46Z</time>
      </trkpt>
      <trkpt lat="46.58836" lon="-1.35698">
        <ele>60</ele>
        <time>2022-02-27T19:06:08Z</time>
      </trkpt>
      <trkpt lat="46.58793" lon="-1.35663">
        <ele>59</ele>
        <time>2022-02-27T19:06:20Z</time>
      </trkpt>
      <trkpt lat="46.58782" lon="-1.35668">
        <ele>59</ele>
        <time>2022-02-27T19:06:23Z</time>
      </trkpt>
      <trkpt lat="46.58708" lon="-1.35784">
        <ele>55</ele>
        <time>2022-02-27T19:06:48Z</time>
      </trkpt>
      <trkpt lat="46.58672" lon="-1.35829">
        <ele>53</ele>
        <time>2022-02-27T19:06:59Z</time>
      </trkpt>
      <trkpt lat="46.58657" lon="-1.35854">
        <ele>50</ele>
        <time>2022-02-27T19:07:04Z</time>
      </trkpt>
      <trkpt lat="46.58639" lon="-1.35864">
        <ele>48</ele>
        <time>2022-02-27T19:07:09Z</time>
      </trkpt>
      <trkpt lat="46.58559" lon="-1.35869">
        <ele>45</ele>
        <time>2022-02-27T19:07:28Z</time>
      </trkpt>
      <trkpt lat="46.58552" lon="-1.35865">
        <ele>45</ele>
        <time>2022-02-27T19:07:29Z</time>
      </trkpt>
      <trkpt lat="46.58529" lon="-1.35806">
        <ele>48</ele>
        <time>2022-02-27T19:07:40Z</time>
      </trkpt>
      <trkpt lat="46.58526" lon="-1.35792">
        <ele>48</ele>
        <time>2022-02-27T19:07:43Z</time>
      </trkpt>
      <trkpt lat="46.5849" lon="-1.35779">
        <ele>47</ele>
        <time>2022-02-27T19:07:51Z</time>
      </trkpt>
      <trkpt lat="46.58482" lon="-1.35766">
        <ele>46</ele>
        <time>2022-02-27T19:07:54Z</time>
      </trkpt>
      <trkpt lat="46.58476" lon="-1.35732">
        <ele>47</ele>
        <time>2022-02-27T19:08:00Z</time>
      </trkpt>
      <trkpt lat="46.58477" lon="-1.35721">
        <ele>48</ele>
        <time>2022-02-27T19:08:01Z</time>
      </trkpt>
      <trkpt lat="46.58463" lon="-1.35702">
        <ele>49</ele>
        <time>2022-02-27T19:08:06Z</time>
      </trkpt>
      <trkpt lat="46.58411" lon="-1.3567">
        <ele>51</ele>
        <time>2022-02-27T19:08:19Z</time>
      </trkpt>
      <trkpt lat="46.58405" lon="-1.35676">
        <ele>51</ele>
        <time>2022-02-27T19:08:21Z</time>
      </trkpt>
      <trkpt lat="46.58384" lon="-1.35663">
        <ele>53</ele>
        <time>2022-02-27T19:08:26Z</time>
      </trkpt>
      <trkpt lat="46.58345" lon="-1.35624">
        <ele>57</ele>
        <time>2022-02-27T19:08:37Z</time>
      </trkpt>
      <trkpt lat="46.58326" lon="-1.35644">
        <ele>56</ele>
        <time>2022-02-27T19:08:43Z</time>
      </trkpt>
      <trkpt lat="46.58298" lon="-1.35628">
        <ele>56</ele>
        <time>2022-02-27T19:08:50Z</time>
      </trkpt>
      <trkpt lat="46.58284" lon="-1.35636">
        <ele>56</ele>
        <time>2022-02-27T19:08:53Z</time>
      </trkpt>
      <trkpt lat="46.58273" lon="-1.35647">
        <ele>56</ele>
        <time>2022-02-27T19:08:56Z</time>
      </trkpt>
      <trkpt lat="46.58256" lon="-1.3564">
        <ele>56</ele>
        <time>2022-02-27T19:09:00Z</time>
      </trkpt>
      <trkpt lat="46.58248" lon="-1.35649">
        <ele>56</ele>
        <time>2022-02-27T19:09:03Z</time>
      </trkpt>
      <trkpt lat="46.58166" lon="-1.35835">
        <ele>50</ele>
        <time>2022-02-27T19:09:38Z</time>
      </trkpt>
      <trkpt lat="46.58161" lon="-1.35876">
        <ele>51</ele>
        <time>2022-02-27T19:09:45Z</time>
      </trkpt>
      <trkpt lat="46.58072" lon="-1.36056">
        <ele>52</ele>
        <time>2022-02-27T19:10:21Z</time>
      </trkpt>
      <trkpt lat="46.57997" lon="-1.36177">
        <ele>44</ele>
        <time>2022-02-27T19:10:47Z</time>
      </trkpt>
      <trkpt lat="46.57962" lon="-1.3613">
        <ele>43</ele>
        <time>2022-02-27T19:10:58Z</time>
      </trkpt>
      <trkpt lat="46.5793" lon="-1.36077">
        <ele>41</ele>
        <time>2022-02-27T19:11:09Z</time>
      </trkpt>
      <trkpt lat="46.57867" lon="-1.35931">
        <ele>35</ele>
        <time>2022-02-27T19:11:37Z</time>
      </trkpt>
      <trkpt lat="46.57851" lon="-1.35921">
        <ele>34</ele>
        <time>2022-02-27T19:11:41Z</time>
      </trkpt>
      <trkpt lat="46.57835" lon="-1.35827">
        <ele>36</ele>
        <time>2022-02-27T19:11:56Z</time>
      </trkpt>
      <trkpt lat="46.57868" lon="-1.35679">
        <ele>41</ele>
        <time>2022-02-27T19:12:21Z</time>
      </trkpt>
      <trkpt lat="46.57839" lon="-1.35558">
        <ele>43</ele>
        <time>2022-02-27T19:12:42Z</time>
      </trkpt>
      <trkpt lat="46.57824" lon="-1.35509">
        <ele>46</ele>
        <time>2022-02-27T19:12:51Z</time>
      </trkpt>
      <trkpt lat="46.57822" lon="-1.35462">
        <ele>48</ele>
        <time>2022-02-27T19:12:58Z</time>
      </trkpt>
      <trkpt lat="46.57831" lon="-1.35392">
        <ele>50</ele>
        <time>2022-02-27T19:13:10Z</time>
      </trkpt>
      <trkpt lat="46.57778" lon="-1.35374">
        <ele>49</ele>
        <time>2022-02-27T19:13:22Z</time>
      </trkpt>
      <trkpt lat="46.57767" lon="-1.35383">
        <ele>48</ele>
        <time>2022-02-27T19:13:25Z</time>
      </trkpt>
      <trkpt lat="46.57754" lon="-1.35414">
        <ele>46</ele>
        <time>2022-02-27T19:13:31Z</time>
      </trkpt>
      <trkpt lat="46.57724" lon="-1.35409">
        <ele>43</ele>
        <time>2022-02-27T19:13:38Z</time>
      </trkpt>
      <trkpt lat="46.5769" lon="-1.35464">
        <ele>35</ele>
        <time>2022-02-27T19:13:50Z</time>
      </trkpt>
      <trkpt lat="46.57659" lon="-1.3542">
        <ele>34</ele>
        <time>2022-02-27T19:14:00Z</time>
      </trkpt>
      <trkpt lat="46.57594" lon="-1.35369">
        <ele>37</ele>
        <time>2022-02-27T19:14:17Z</time>
      </trkpt>
      <trkpt lat="46.57541" lon="-1.35374">
        <ele>36</ele>
        <time>2022-02-27T19:14:30Z</time>
      </trkpt>
      <trkpt lat="46.57481" lon="-1.35394">
        <ele>36</ele>
        <time>2022-02-27T19:14:44Z</time>
      </trkpt>
      <trkpt lat="46.57436" lon="-1.35414">
        <ele>37</ele>
        <time>2022-02-27T19:14:55Z</time>
      </trkpt>
      <trkpt lat="46.57399" lon="-1.35442">
        <ele>37</ele>
        <time>2022-02-27T19:15:05Z</time>
      </trkpt>
      <trkpt lat="46.5732" lon="-1.35522">
        <ele>34</ele>
        <time>2022-02-27T19:15:27Z</time>
      </trkpt>
      <trkpt lat="46.57269" lon="-1.35529">
        <ele>37</ele>
        <time>2022-02-27T19:15:39Z</time>
      </trkpt>
      <trkpt lat="46.57228" lon="-1.35528">
        <ele>39</ele>
        <time>2022-02-27T19:15:49Z</time>
      </trkpt>
      <trkpt lat="46.57172" lon="-1.35336">
        <ele>46</ele>
        <time>2022-02-27T19:16:22Z</time>
      </trkpt>
      <trkpt lat="46.57169" lon="-1.35299">
        <ele>46</ele>
        <time>2022-02-27T19:16:28Z</time>
      </trkpt>
      <trkpt lat="46.57158" lon="-1.35248">
        <ele>45</ele>
        <time>2022-02-27T19:16:37Z</time>
      </trkpt>
      <trkpt lat="46.57111" lon="-1.35255">
        <ele>44</ele>
        <time>2022-02-27T19:16:48Z</time>
      </trkpt>
      <trkpt lat="46.5706" lon="-1.35273">
        <ele>44</ele>
        <time>2022-02-27T19:17:00Z</time>
      </trkpt>
      <trkpt lat="46.56958" lon="-1.35351">
        <ele>41</ele>
        <time>2022-02-27T19:17:27Z</time>
      </trkpt>
      <trkpt lat="46.56913" lon="-1.35246">
        <ele>40</ele>
        <time>2022-02-27T19:17:47Z</time>
      </trkpt>
      <trkpt lat="46.56903" lon="-1.35143">
        <ele>41</ele>
        <time>2022-02-27T19:18:04Z</time>
      </trkpt>
      <trkpt lat="46.56881" lon="-1.35116">
        <ele>38</ele>
        <time>2022-02-27T19:18:10Z</time>
      </trkpt>
      <trkpt lat="46.5687" lon="-1.35107">
        <ele>36</ele>
        <time>2022-02-27T19:18:13Z</time>
      </trkpt>
      <trkpt lat="46.56821" lon="-1.35202">
        <ele>31</ele>
        <time>2022-02-27T19:18:32Z</time>
      </trkpt>
      <trkpt lat="46.56744" lon="-1.35279">
        <ele>28</ele>
        <time>2022-02-27T19:18:54Z</time>
      </trkpt>
      <trkpt lat="46.56743" lon="-1.35307">
        <ele>28</ele>
        <time>2022-02-27T19:18:59Z</time>
      </trkpt>
      <trkpt lat="46.56747" lon="-1.3534">
        <ele>28</ele>
        <time>2022-02-27T19:19:04Z</time>
      </trkpt>
      <trkpt lat="46.56761" lon="-1.35387">
        <ele>29</ele>
        <time>2022-02-27T19:19:12Z</time>
      </trkpt>
      <trkpt lat="46.5677" lon="-1.35438">
        <ele>29</ele>
        <time>2022-02-27T19:19:21Z</time>
      </trkpt>
      <trkpt lat="46.56788" lon="-1.35503">
        <ele>29</ele>
        <time>2022-02-27T19:19:32Z</time>
      </trkpt>
      <trkpt lat="46.56787" lon="-1.35543">
        <ele>29</ele>
        <time>2022-02-27T19:19:38Z</time>
      </trkpt>
      <trkpt lat="46.56795" lon="-1.35569">
        <ele>30</ele>
        <time>2022-02-27T19:19:43Z</time>
      </trkpt>
      <trkpt lat="46.56776" lon="-1.35579">
        <ele>31</ele>
        <time>2022-02-27T19:19:48Z</time>
      </trkpt>
      <trkpt lat="46.56777" lon="-1.35599">
        <ele>31</ele>
        <time>2022-02-27T19:19:51Z</time>
      </trkpt>
      <trkpt lat="46.56771" lon="-1.3561">
        <ele>31</ele>
        <time>2022-02-27T19:19:53Z</time>
      </trkpt>
      <trkpt lat="46.56768" lon="-1.35608">
        <ele>32</ele>
        <time>2022-02-27T19:19:54Z</time>
      </trkpt>
      <trkpt lat="46.56755" lon="-1.35582">
        <ele>32</ele>
        <time>2022-02-27T19:19:59Z</time>
      </trkpt>
      <trkpt lat="46.56722" lon="-1.35552">
        <ele>34</ele>
        <time>2022-02-27T19:20:08Z</time>
      </trkpt>
      <trkpt lat="46.56693" lon="-1.35454">
        <ele>34</ele>
        <time>2022-02-27T19:20:25Z</time>
      </trkpt>
      <trkpt lat="46.56685" lon="-1.35444">
        <ele>35</ele>
        <time>2022-02-27T19:20:28Z</time>
      </trkpt>
      <trkpt lat="46.56656" lon="-1.35503">
        <ele>37</ele>
        <time>2022-02-27T19:20:39Z</time>
      </trkpt>
      <trkpt lat="46.56624" lon="-1.35595">
        <ele>41</ele>
        <time>2022-02-27T19:20:56Z</time>
      </trkpt>
      <trkpt lat="46.56573" lon="-1.35673">
        <ele>47</ele>
        <time>2022-02-27T19:21:13Z</time>
      </trkpt>
      <trkpt lat="46.56535" lon="-1.35757">
        <ele>48</ele>
        <time>2022-02-27T19:21:29Z</time>
      </trkpt>
      <trkpt lat="46.56514" lon="-1.35724">
        <ele>47</ele>
        <time>2022-02-27T19:21:37Z</time>
      </trkpt>
      <trkpt lat="46.56468" lon="-1.35692">
        <ele>48</ele>
        <time>2022-02-27T19:21:49Z</time>
      </trkpt>
      <trkpt lat="46.56422" lon="-1.35641">
        <ele>50</ele>
        <time>2022-02-27T19:22:02Z</time>
      </trkpt>
      <trkpt lat="46.5628" lon="-1.35735">
        <ele>60</ele>
        <time>2022-02-27T19:22:39Z</time>
      </trkpt>
      <trkpt lat="46.5618" lon="-1.35776">
        <ele>62</ele>
        <time>2022-02-27T19:23:03Z</time>
      </trkpt>
      <trkpt lat="46.56147" lon="-1.35724">
        <ele>61</ele>
        <time>2022-02-27T19:23:14Z</time>
      </trkpt>
      <trkpt lat="46.56086" lon="-1.35657">
        <ele>60</ele>
        <time>2022-02-27T19:23:32Z</time>
      </trkpt>
      <trkpt lat="46.56061" lon="-1.35594">
        <ele>56</ele>
        <time>2022-02-27T19:23:44Z</time>
      </trkpt>
      <trkpt lat="46.56036" lon="-1.355">
        <ele>52</ele>
        <time>2022-02-27T19:24:00Z</time>
      </trkpt>
      <trkpt lat="46.56028" lon="-1.35422">
        <ele>51</ele>
        <time>2022-02-27T19:24:13Z</time>
      </trkpt>
      <trkpt lat="46.56005" lon="-1.35348">
        <ele>49</ele>
        <time>2022-02-27T19:24:26Z</time>
      </trkpt>
      <trkpt lat="46.55963" lon="-1.35264">
        <ele>46</ele>
        <time>2022-02-27T19:24:42Z</time>
      </trkpt>
      <trkpt lat="46.55921" lon="-1.35196">
        <ele>45</ele>
        <time>2022-02-27T19:24:57Z</time>
      </trkpt>
      <trkpt lat="46.55888" lon="-1.3515">
        <ele>43</ele>
        <time>2022-02-27T19:25:08Z</time>
      </trkpt>
      <trkpt lat="46.5585" lon="-1.35115">
        <ele>42</ele>
        <time>2022-02-27T19:25:18Z</time>
      </trkpt>
      <trkpt lat="46.55795" lon="-1.35077">
        <ele>39</ele>
        <time>2022-02-27T19:25:32Z</time>
      </trkpt>
      <trkpt lat="46.55772" lon="-1.35066">
        <ele>37</ele>
        <time>2022-02-27T19:25:38Z</time>
      </trkpt>
      <trkpt lat="46.558" lon="-1.35022">
        <ele>37</ele>
        <time>2022-02-27T19:25:48Z</time>
      </trkpt>
      <trkpt lat="46.55842" lon="-1.3498">
        <ele>34</ele>
        <time>2022-02-27T19:26:00Z</time>
      </trkpt>
      <trkpt lat="46.55875" lon="-1.34907">
        <ele>28</ele>
        <time>2022-02-27T19:26:14Z</time>
      </trkpt>
      <trkpt lat="46.55878" lon="-1.34854">
        <ele>26</ele>
        <time>2022-02-27T19:26:22Z</time>
      </trkpt>
      <trkpt lat="46.55868" lon="-1.34812">
        <ele>26</ele>
        <time>2022-02-27T19:26:29Z</time>
      </trkpt>
      <trkpt lat="46.5587" lon="-1.3477">
        <ele>27</ele>
        <time>2022-02-27T19:26:36Z</time>
      </trkpt>
      <trkpt lat="46.55886" lon="-1.3472">
        <ele>30</ele>
        <time>2022-02-27T19:26:45Z</time>
      </trkpt>
      <trkpt lat="46.55937" lon="-1.34749">
        <ele>30</ele>
        <time>2022-02-27T19:26:58Z</time>
      </trkpt>
      <trkpt lat="46.55968" lon="-1.3477">
        <ele>29</ele>
        <time>2022-02-27T19:27:06Z</time>
      </trkpt>
      <trkpt lat="46.55996" lon="-1.34776">
        <ele>29</ele>
        <time>2022-02-27T19:27:12Z</time>
      </trkpt>
      <trkpt lat="46.56017" lon="-1.34774">
        <ele>30</ele>
        <time>2022-02-27T19:27:17Z</time>
      </trkpt>
      <trkpt lat="46.56037" lon="-1.34755">
        <ele>33</ele>
        <time>2022-02-27T19:27:23Z</time>
      </trkpt>
      <trkpt lat="46.56142" lon="-1.34591">
        <ele>50</ele>
        <time>2022-02-27T19:27:59Z</time>
      </trkpt>
      <trkpt lat="46.56183" lon="-1.34532">
        <ele>52</ele>
        <time>2022-02-27T19:28:12Z</time>
      </trkpt>
      <trkpt lat="46.56142" lon="-1.34503">
        <ele>52</ele>
        <time>2022-02-27T19:28:23Z</time>
      </trkpt>
      <trkpt lat="46.56057" lon="-1.34421">
        <ele>49</ele>
        <time>2022-02-27T19:28:47Z</time>
      </trkpt>
      <trkpt lat="46.5597" lon="-1.34365">
        <ele>43</ele>
        <time>2022-02-27T19:29:09Z</time>
      </trkpt>
      <trkpt lat="46.55895" lon="-1.34325">
        <ele>39</ele>
        <time>2022-02-27T19:29:28Z</time>
      </trkpt>
      <trkpt lat="46.55823" lon="-1.34362">
        <ele>38</ele>
        <time>2022-02-27T19:29:45Z</time>
      </trkpt>
      <trkpt lat="46.55775" lon="-1.344">
        <ele>36</ele>
        <time>2022-02-27T19:29:58Z</time>
      </trkpt>
      <trkpt lat="46.55684" lon="-1.34267">
        <ele>35</ele>
        <time>2022-02-27T19:30:28Z</time>
      </trkpt>
      <trkpt lat="46.55619" lon="-1.34264">
        <ele>32</ele>
        <time>2022-02-27T19:30:43Z</time>
      </trkpt>
      <trkpt lat="46.55594" lon="-1.34238">
        <ele>33</ele>
        <time>2022-02-27T19:30:51Z</time>
      </trkpt>
      <trkpt lat="46.55582" lon="-1.34232">
        <ele>33</ele>
        <time>2022-02-27T19:30:54Z</time>
      </trkpt>
      <trkpt lat="46.55568" lon="-1.34242">
        <ele>31</ele>
        <time>2022-02-27T19:30:57Z</time>
      </trkpt>
      <trkpt lat="46.55542" lon="-1.3428">
        <ele>27</ele>
        <time>2022-02-27T19:31:06Z</time>
      </trkpt>
      <trkpt lat="46.55486" lon="-1.34224">
        <ele>30</ele>
        <time>2022-02-27T19:31:22Z</time>
      </trkpt>
      <trkpt lat="46.5545" lon="-1.34208">
        <ele>30</ele>
        <time>2022-02-27T19:31:30Z</time>
      </trkpt>
      <trkpt lat="46.55421" lon="-1.34203">
        <ele>30</ele>
        <time>2022-02-27T19:31:37Z</time>
      </trkpt>
      <trkpt lat="46.55399" lon="-1.34184">
        <ele>30</ele>
        <time>2022-02-27T19:31:43Z</time>
      </trkpt>
      <trkpt lat="46.55389" lon="-1.34153">
        <ele>31</ele>
        <time>2022-02-27T19:31:49Z</time>
      </trkpt>
      <trkpt lat="46.55404" lon="-1.34112">
        <ele>35</ele>
        <time>2022-02-27T19:31:56Z</time>
      </trkpt>
      <trkpt lat="46.55413" lon="-1.34094">
        <ele>37</ele>
        <time>2022-02-27T19:32:00Z</time>
      </trkpt>
      <trkpt lat="46.55405" lon="-1.34079">
        <ele>37</ele>
        <time>2022-02-27T19:32:03Z</time>
      </trkpt>
      <trkpt lat="46.55333" lon="-1.34121">
        <ele>28</ele>
        <time>2022-02-27T19:32:21Z</time>
      </trkpt>
      <trkpt lat="46.55279" lon="-1.34114">
        <ele>29</ele>
        <time>2022-02-27T19:32:34Z</time>
      </trkpt>
      <trkpt lat="46.55227" lon="-1.34142">
        <ele>25</ele>
        <time>2022-02-27T19:32:47Z</time>
      </trkpt>
      <trkpt lat="46.55157" lon="-1.34141">
        <ele>25</ele>
        <time>2022-02-27T19:33:03Z</time>
      </trkpt>
      <trkpt lat="46.55106" lon="-1.34153">
        <ele>25</ele>
        <time>2022-02-27T19:33:15Z</time>
      </trkpt>
      <trkpt lat="46.55043" lon="-1.34157">
        <ele>25</ele>
        <time>2022-02-27T19:33:30Z</time>
      </trkpt>
      <trkpt lat="46.5502" lon="-1.34168">
        <ele>26</ele>
        <time>2022-02-27T19:33:35Z</time>
      </trkpt>
      <trkpt lat="46.54974" lon="-1.34168">
        <ele>25</ele>
        <time>2022-02-27T19:33:46Z</time>
      </trkpt>
      <trkpt lat="46.54916" lon="-1.34154">
        <ele>24</ele>
        <time>2022-02-27T19:34:00Z</time>
      </trkpt>
      <trkpt lat="46.54907" lon="-1.34136">
        <ele>25</ele>
        <time>2022-02-27T19:34:03Z</time>
      </trkpt>
      <trkpt lat="46.54896" lon="-1.34134">
        <ele>24</ele>
        <time>2022-02-27T19:34:06Z</time>
      </trkpt>
      <trkpt lat="46.5484" lon="-1.34087">
        <ele>21</ele>
        <time>2022-02-27T19:34:21Z</time>
      </trkpt>
      <trkpt lat="46.54807" lon="-1.34073">
        <ele>21</ele>
        <time>2022-02-27T19:34:29Z</time>
      </trkpt>
      <trkpt lat="46.54764" lon="-1.34062">
        <ele>21</ele>
        <time>2022-02-27T19:34:39Z</time>
      </trkpt>
      <trkpt lat="46.54729" lon="-1.34009">
        <ele>22</ele>
        <time>2022-02-27T19:34:51Z</time>
      </trkpt>
      <trkpt lat="46.54693" lon="-1.33944">
        <ele>21</ele>
        <time>2022-02-27T19:35:05Z</time>
      </trkpt>
      <trkpt lat="46.54665" lon="-1.33879">
        <ele>19</ele>
        <time>2022-02-27T19:35:17Z</time>
      </trkpt>
      <trkpt lat="46.54647" lon="-1.33822">
        <ele>22</ele>
        <time>2022-02-27T19:35:27Z</time>
      </trkpt>
      <trkpt lat="46.54686" lon="-1.33761">
        <ele>22</ele>
        <time>2022-02-27T19:35:40Z</time>
      </trkpt>
      <trkpt lat="46.54654" lon="-1.33707">
        <ele>22</ele>
        <time>2022-02-27T19:35:52Z</time>
      </trkpt>
      <trkpt lat="46.54636" lon="-1.33634">
        <ele>23</ele>
        <time>2022-02-27T19:36:04Z</time>
      </trkpt>
      <trkpt lat="46.5461" lon="-1.33559">
        <ele>21</ele>
        <time>2022-02-27T19:36:18Z</time>
      </trkpt>
      <trkpt lat="46.546" lon="-1.3352">
        <ele>20</ele>
        <time>2022-02-27T19:36:24Z</time>
      </trkpt>
      <trkpt lat="46.54576" lon="-1.33481">
        <ele>18</ele>
        <time>2022-02-27T19:36:33Z</time>
      </trkpt>
      <trkpt lat="46.54571" lon="-1.33455">
        <ele>19</ele>
        <time>2022-02-27T19:36:37Z</time>
      </trkpt>
      <trkpt lat="46.54535" lon="-1.33403">
        <ele>18</ele>
        <time>2022-02-27T19:36:49Z</time>
      </trkpt>
      <trkpt lat="46.54526" lon="-1.33428">
        <ele>18</ele>
        <time>2022-02-27T19:36:54Z</time>
      </trkpt>
      <trkpt lat="46.54462" lon="-1.33379">
        <ele>20</ele>
        <time>2022-02-27T19:37:10Z</time>
      </trkpt>
      <trkpt lat="46.54486" lon="-1.3337">
        <ele>17</ele>
        <time>2022-02-27T19:37:16Z</time>
      </trkpt>
      <trkpt lat="46.54494" lon="-1.33357">
        <ele>16</ele>
        <time>2022-02-27T19:37:19Z</time>
      </trkpt>
      <trkpt lat="46.54498" lon="-1.33326">
        <ele>15</ele>
        <time>2022-02-27T19:37:24Z</time>
      </trkpt>
      <trkpt lat="46.54548" lon="-1.33363">
        <ele>21</ele>
        <time>2022-02-27T19:37:37Z</time>
      </trkpt>
      <trkpt lat="46.54586" lon="-1.33384">
        <ele>24</ele>
        <time>2022-02-27T19:37:47Z</time>
      </trkpt>
      <trkpt lat="46.54665" lon="-1.33352">
        <ele>35</ele>
        <time>2022-02-27T19:38:06Z</time>
      </trkpt>
      <trkpt lat="46.54695" lon="-1.33359">
        <ele>35</ele>
        <time>2022-02-27T19:38:13Z</time>
      </trkpt>
      <trkpt lat="46.54791" lon="-1.33307">
        <ele>39</ele>
        <time>2022-02-27T19:38:37Z</time>
      </trkpt>
      <trkpt lat="46.54875" lon="-1.33227">
        <ele>43</ele>
        <time>2022-02-27T19:39:00Z</time>
      </trkpt>
      <trkpt lat="46.54886" lon="-1.33164">
        <ele>42</ele>
        <time>2022-02-27T19:39:11Z</time>
      </trkpt>
      <trkpt lat="46.54893" lon="-1.33098">
        <ele>43</ele>
        <time>2022-02-27T19:39:21Z</time>
      </trkpt>
      <trkpt lat="46.54861" lon="-1.33016">
        <ele>44</ele>
        <time>2022-02-27T19:39:37Z</time>
      </trkpt>
      <trkpt lat="46.54812" lon="-1.32938">
        <ele>45</ele>
        <time>2022-02-27T19:39:54Z</time>
      </trkpt>
      <trkpt lat="46.54764" lon="-1.32893">
        <ele>45</ele>
        <time>2022-02-27T19:40:07Z</time>
      </trkpt>
      <trkpt lat="46.54718" lon="-1.32797">
        <ele>46</ele>
        <time>2022-02-27T19:40:26Z</time>
      </trkpt>
      <trkpt lat="46.54699" lon="-1.32776">
        <ele>45</ele>
        <time>2022-02-27T19:40:31Z</time>
      </trkpt>
      <trkpt lat="46.54592" lon="-1.3282">
        <ele>42</ele>
        <time>2022-02-27T19:40:57Z</time>
      </trkpt>
      <trkpt lat="46.54533" lon="-1.32849">
        <ele>39</ele>
        <time>2022-02-27T19:41:12Z</time>
      </trkpt>
      <trkpt lat="46.54457" lon="-1.32863">
        <ele>34</ele>
        <time>2022-02-27T19:41:30Z</time>
      </trkpt>
      <trkpt lat="46.54377" lon="-1.32896">
        <ele>28</ele>
        <time>2022-02-27T19:41:49Z</time>
      </trkpt>
      <trkpt lat="46.54286" lon="-1.32921">
        <ele>21</ele>
        <time>2022-02-27T19:42:11Z</time>
      </trkpt>
      <trkpt lat="46.54233" lon="-1.3296">
        <ele>20</ele>
        <time>2022-02-27T19:42:25Z</time>
      </trkpt>
      <trkpt lat="46.54189" lon="-1.32961">
        <ele>19</ele>
        <time>2022-02-27T19:42:35Z</time>
      </trkpt>
      <trkpt lat="46.54119" lon="-1.32974">
        <ele>18</ele>
        <time>2022-02-27T19:42:51Z</time>
      </trkpt>
      <trkpt lat="46.54097" lon="-1.33019">
        <ele>14</ele>
        <time>2022-02-27T19:43:00Z</time>
      </trkpt>
      <trkpt lat="46.54079" lon="-1.33039">
        <ele>12</ele>
        <time>2022-02-27T19:43:05Z</time>
      </trkpt>
      <trkpt lat="46.54057" lon="-1.33039">
        <ele>14</ele>
        <time>2022-02-27T19:43:11Z</time>
      </trkpt>
      <trkpt lat="46.54009" lon="-1.33058">
        <ele>14</ele>
        <time>2022-02-27T19:43:22Z</time>
      </trkpt>
      <trkpt lat="46.53978" lon="-1.33074">
        <ele>14</ele>
        <time>2022-02-27T19:43:30Z</time>
      </trkpt>
      <trkpt lat="46.53906" lon="-1.3303">
        <ele>19</ele>
        <time>2022-02-27T19:43:48Z</time>
      </trkpt>
      <trkpt lat="46.53866" lon="-1.33125">
        <ele>11</ele>
        <time>2022-02-27T19:44:06Z</time>
      </trkpt>
      <trkpt lat="46.53863" lon="-1.3316">
        <ele>10</ele>
        <time>2022-02-27T19:44:12Z</time>
      </trkpt>
      <trkpt lat="46.53903" lon="-1.3316">
        <ele>10</ele>
        <time>2022-02-27T19:44:21Z</time>
      </trkpt>
      <trkpt lat="46.53919" lon="-1.33183">
        <ele>9</ele>
        <time>2022-02-27T19:44:26Z</time>
      </trkpt>
      <trkpt lat="46.53916" lon="-1.33237">
        <ele>11</ele>
        <time>2022-02-27T19:44:35Z</time>
      </trkpt>
      <trkpt lat="46.53987" lon="-1.33255">
        <ele>23</ele>
        <time>2022-02-27T19:44:52Z</time>
      </trkpt>
      <trkpt lat="46.53852" lon="-1.33477">
        <ele>21</ele>
        <time>2022-02-27T19:45:39Z</time>
      </trkpt>
      <trkpt lat="46.5383" lon="-1.33507">
        <ele>20</ele>
        <time>2022-02-27T19:45:46Z</time>
      </trkpt>
      <trkpt lat="46.53755" lon="-1.33533">
        <ele>21</ele>
        <time>2022-02-27T19:46:04Z</time>
      </trkpt>
      <trkpt lat="46.53692" lon="-1.33515">
        <ele>21</ele>
        <time>2022-02-27T19:46:19Z</time>
      </trkpt>
      <trkpt lat="46.53662" lon="-1.33472">
        <ele>16</ele>
        <time>2022-02-27T19:46:29Z</time>
      </trkpt>
      <trkpt lat="46.53619" lon="-1.33451">
        <ele>18</ele>
        <time>2022-02-27T19:46:40Z</time>
      </trkpt>
      <trkpt lat="46.53593" lon="-1.33459">
        <ele>20</ele>
        <time>2022-02-27T19:46:46Z</time>
      </trkpt>
      <trkpt lat="46.53565" lon="-1.33458">
        <ele>22</ele>
        <time>2022-02-27T19:46:53Z</time>
      </trkpt>
      <trkpt lat="46.53536" lon="-1.33453">
        <ele>23</ele>
        <time>2022-02-27T19:46:59Z</time>
      </trkpt>
      <trkpt lat="46.53487" lon="-1.33566">
        <ele>24</ele>
        <time>2022-02-27T19:47:21Z</time>
      </trkpt>
      <trkpt lat="46.53458" lon="-1.33606">
        <ele>27</ele>
        <time>2022-02-27T19:47:30Z</time>
      </trkpt>
      <trkpt lat="46.53395" lon="-1.33608">
        <ele>30</ele>
        <time>2022-02-27T19:47:45Z</time>
      </trkpt>
      <trkpt lat="46.53344" lon="-1.33541">
        <ele>44</ele>
        <time>2022-02-27T19:48:01Z</time>
      </trkpt>
      <trkpt lat="46.53288" lon="-1.3357">
        <ele>48</ele>
        <time>2022-02-27T19:48:15Z</time>
      </trkpt>
      <trkpt lat="46.53349" lon="-1.33611">
        <ele>37</ele>
        <time>2022-02-27T19:48:31Z</time>
      </trkpt>
      <trkpt lat="46.53356" lon="-1.33685">
        <ele>32</ele>
        <time>2022-02-27T19:48:43Z</time>
      </trkpt>
      <trkpt lat="46.53318" lon="-1.33715">
        <ele>34</ele>
        <time>2022-02-27T19:48:53Z</time>
      </trkpt>
      <trkpt lat="46.53274" lon="-1.33756">
        <ele>37</ele>
        <time>2022-02-27T19:49:05Z</time>
      </trkpt>
      <trkpt lat="46.5325" lon="-1.3384">
        <ele>36</ele>
        <time>2022-02-27T19:49:20Z</time>
      </trkpt>
      <trkpt lat="46.53282" lon="-1.33948">
        <ele>37</ele>
        <time>2022-02-27T19:49:38Z</time>
      </trkpt>
      <trkpt lat="46.53254" lon="-1.34231">
        <ele>34</ele>
        <time>2022-02-27T19:50:24Z</time>
      </trkpt>
      <trkpt lat="46.53292" lon="-1.34227">
        <ele>37</ele>
        <time>2022-02-27T19:50:33Z</time>
      </trkpt>
      <trkpt lat="46.53326" lon="-1.34144">
        <ele>37</ele>
        <time>2022-02-27T19:50:49Z</time>
      </trkpt>
      <trkpt lat="46.53358" lon="-1.34115">
        <ele>40</ele>
        <time>2022-02-27T19:50:58Z</time>
      </trkpt>
      <trkpt lat="46.53414" lon="-1.34127">
        <ele>51</ele>
        <time>2022-02-27T19:51:11Z</time>
      </trkpt>
      <trkpt lat="46.5344" lon="-1.34099">
        <ele>53</ele>
        <time>2022-02-27T19:51:18Z</time>
      </trkpt>
      <trkpt lat="46.53516" lon="-1.34087">
        <ele>59</ele>
        <time>2022-02-27T19:51:36Z</time>
      </trkpt>
      <trkpt lat="46.53563" lon="-1.34086">
        <ele>60</ele>
        <time>2022-02-27T19:51:47Z</time>
      </trkpt>
      <trkpt lat="46.53584" lon="-1.33949">
        <ele>58</ele>
        <time>2022-02-27T19:52:10Z</time>
      </trkpt>
      <trkpt lat="46.53604" lon="-1.33902">
        <ele>58</ele>
        <time>2022-02-27T19:52:19Z</time>
      </trkpt>
      <trkpt lat="46.53632" lon="-1.33896">
        <ele>58</ele>
        <time>2022-02-27T19:52:25Z</time>
      </trkpt>
      <trkpt lat="46.53665" lon="-1.33902">
        <ele>58</ele>
        <time>2022-02-27T19:52:33Z</time>
      </trkpt>
      <trkpt lat="46.53725" lon="-1.33968">
        <ele>59</ele>
        <time>2022-02-27T19:52:51Z</time>
      </trkpt>
      <trkpt lat="46.5376" lon="-1.33997">
        <ele>59</ele>
        <time>2022-02-27T19:53:00Z</time>
      </trkpt>
      <trkpt lat="46.53811" lon="-1.34014">
        <ele>57</ele>
        <time>2022-02-27T19:53:12Z</time>
      </trkpt>
      <trkpt lat="46.53887" lon="-1.33994">
        <ele>53</ele>
        <time>2022-02-27T19:53:30Z</time>
      </trkpt>
      <trkpt lat="46.53906" lon="-1.34003">
        <ele>52</ele>
        <time>2022-02-27T19:53:35Z</time>
      </trkpt>
      <trkpt lat="46.53937" lon="-1.3403">
        <ele>51</ele>
        <time>2022-02-27T19:53:43Z</time>
      </trkpt>
      <trkpt lat="46.53998" lon="-1.34029">
        <ele>47</ele>
        <time>2022-02-27T19:53:58Z</time>
      </trkpt>
      <trkpt lat="46.54077" lon="-1.34043">
        <ele>46</ele>
        <time>2022-02-27T19:54:16Z</time>
      </trkpt>
      <trkpt lat="46.54123" lon="-1.3391">
        <ele>44</ele>
        <time>2022-02-27T19:54:40Z</time>
      </trkpt>
      <trkpt lat="46.54237" lon="-1.33777">
        <ele>40</ele>
        <time>2022-02-27T19:55:14Z</time>
      </trkpt>
      <trkpt lat="46.54287" lon="-1.33686">
        <ele>38</ele>
        <time>2022-02-27T19:55:33Z</time>
      </trkpt>
      <trkpt lat="46.54315" lon="-1.33549">
        <ele>36</ele>
        <time>2022-02-27T19:55:56Z</time>
      </trkpt>
      <trkpt lat="46.54262" lon="-1.33524">
        <ele>35</ele>
        <time>2022-02-27T19:56:09Z</time>
      </trkpt>
      <trkpt lat="46.54177" lon="-1.33387">
        <ele>33</ele>
        <time>2022-02-27T19:56:39Z</time>
      </trkpt>
      <trkpt lat="46.54189" lon="-1.33238">
        <ele>20</ele>
        <time>2022-02-27T19:57:03Z</time>
      </trkpt>
      <trkpt lat="46.54222" lon="-1.33275">
        <ele>20</ele>
        <time>2022-02-27T19:57:12Z</time>
      </trkpt>
      <trkpt lat="46.54269" lon="-1.3329">
        <ele>20</ele>
        <time>2022-02-27T19:57:24Z</time>
      </trkpt>
      <trkpt lat="46.5434" lon="-1.33331">
        <ele>25</ele>
        <time>2022-02-27T19:57:41Z</time>
      </trkpt>
      <trkpt lat="46.54377" lon="-1.33333">
        <ele>24</ele>
        <time>2022-02-27T19:57:50Z</time>
      </trkpt>
      <trkpt lat="46.54388" lon="-1.33343">
        <ele>24</ele>
        <time>2022-02-27T19:57:53Z</time>
      </trkpt>
      <trkpt lat="46.54385" lon="-1.33365">
        <ele>26</ele>
        <time>2022-02-27T19:57:57Z</time>
      </trkpt>
      <trkpt lat="46.54376" lon="-1.33388">
        <ele>28</ele>
        <time>2022-02-27T19:58:01Z</time>
      </trkpt>
      <trkpt lat="46.5438" lon="-1.3341">
        <ele>30</ele>
        <time>2022-02-27T19:58:05Z</time>
      </trkpt>
      <trkpt lat="46.54411" lon="-1.33549">
        <ele>38</ele>
        <time>2022-02-27T19:58:28Z</time>
      </trkpt>
      <trkpt lat="46.54448" lon="-1.33628">
        <ele>35</ele>
        <time>2022-02-27T19:58:43Z</time>
      </trkpt>
      <trkpt lat="46.54438" lon="-1.33662">
        <ele>36</ele>
        <time>2022-02-27T19:58:49Z</time>
      </trkpt>
      <trkpt lat="46.54453" lon="-1.33722">
        <ele>36</ele>
        <time>2022-02-27T19:59:00Z</time>
      </trkpt>
      <trkpt lat="46.54464" lon="-1.33733">
        <ele>36</ele>
        <time>2022-02-27T19:59:03Z</time>
      </trkpt>
      <trkpt lat="46.54468" lon="-1.33749">
        <ele>37</ele>
        <time>2022-02-27T19:59:05Z</time>
      </trkpt>
      <trkpt lat="46.54455" lon="-1.33762">
        <ele>36</ele>
        <time>2022-02-27T19:59:09Z</time>
      </trkpt>
      <trkpt lat="46.5438" lon="-1.33983">
        <ele>37</ele>
        <time>2022-02-27T19:59:49Z</time>
      </trkpt>
      <trkpt lat="46.54351" lon="-1.33951">
        <ele>37</ele>
        <time>2022-02-27T19:59:57Z</time>
      </trkpt>
      <trkpt lat="46.54289" lon="-1.34046">
        <ele>38</ele>
        <time>2022-02-27T20:00:18Z</time>
      </trkpt>
      <trkpt lat="46.54263" lon="-1.34073">
        <ele>39</ele>
        <time>2022-02-27T20:00:26Z</time>
      </trkpt>
      <trkpt lat="46.54094" lon="-1.34171">
        <ele>44</ele>
        <time>2022-02-27T20:01:08Z</time>
      </trkpt>
      <trkpt lat="46.53924" lon="-1.34371">
        <ele>54</ele>
        <time>2022-02-27T20:01:59Z</time>
      </trkpt>
      <trkpt lat="46.53793" lon="-1.34662">
        <ele>61</ele>
        <time>2022-02-27T20:02:55Z</time>
      </trkpt>
      <trkpt lat="46.53737" lon="-1.34759">
        <ele>62</ele>
        <time>2022-02-27T20:03:16Z</time>
      </trkpt>
      <trkpt lat="46.53677" lon="-1.348">
        <ele>61</ele>
        <time>2022-02-27T20:03:31Z</time>
      </trkpt>
      <trkpt lat="46.53706" lon="-1.34903">
        <ele>59</ele>
        <time>2022-02-27T20:03:49Z</time>
      </trkpt>
      <trkpt lat="46.53764" lon="-1.35079">
        <ele>61</ele>
        <time>2022-02-27T20:04:20Z</time>
      </trkpt>
      <trkpt lat="46.53873" lon="-1.35345">
        <ele>63</ele>
        <time>2022-02-27T20:05:10Z</time>
      </trkpt>
      <trkpt lat="46.53961" lon="-1.35397">
        <ele>61</ele>
        <time>2022-02-27T20:05:32Z</time>
      </trkpt>
      <trkpt lat="46.54041" lon="-1.35496">
        <ele>58</ele>
        <time>2022-02-27T20:05:57Z</time>
      </trkpt>
      <trkpt lat="46.54154" lon="-1.35502">
        <ele>54</ele>
        <time>2022-02-27T20:06:23Z</time>
      </trkpt>
      <trkpt lat="46.54291" lon="-1.3553">
        <ele>53</ele>
        <time>2022-02-27T20:06:55Z</time>
      </trkpt>
      <trkpt lat="46.54376" lon="-1.35565">
        <ele>54</ele>
        <time>2022-02-27T20:07:16Z</time>
      </trkpt>
      <trkpt lat="46.54474" lon="-1.35589">
        <ele>55</ele>
        <time>2022-02-27T20:07:39Z</time>
      </trkpt>
      <trkpt lat="46.54503" lon="-1.35605">
        <ele>56</ele>
        <time>2022-02-27T20:07:46Z</time>
      </trkpt>
      <trkpt lat="46.54493" lon="-1.357">
        <ele>58</ele>
        <time>2022-02-27T20:08:02Z</time>
      </trkpt>
      <trkpt lat="46.54497" lon="-1.35808">
        <ele>60</ele>
        <time>2022-02-27T20:08:19Z</time>
      </trkpt>
      <trkpt lat="46.54515" lon="-1.36092">
        <ele>67</ele>
        <time>2022-02-27T20:09:05Z</time>
      </trkpt>
      <trkpt lat="46.54546" lon="-1.361">
        <ele>67</ele>
        <time>2022-02-27T20:09:12Z</time>
      </trkpt>
      <trkpt lat="46.54562" lon="-1.36135">
        <ele>68</ele>
        <time>2022-02-27T20:09:19Z</time>
      </trkpt>
      <trkpt lat="46.54593" lon="-1.3629">
        <ele>71</ele>
        <time>2022-02-27T20:09:45Z</time>
      </trkpt>
      <trkpt lat="46.54603" lon="-1.36329">
        <ele>71</ele>
        <time>2022-02-27T20:09:52Z</time>
      </trkpt>
      <trkpt lat="46.54629" lon="-1.36361">
        <ele>71</ele>
        <time>2022-02-27T20:10:00Z</time>
      </trkpt>
      <trkpt lat="46.54641" lon="-1.36453">
        <ele>69</ele>
        <time>2022-02-27T20:10:15Z</time>
      </trkpt>
      <trkpt lat="46.54765" lon="-1.36371">
        <ele>69</ele>
        <time>2022-02-27T20:10:47Z</time>
      </trkpt>
      <trkpt lat="46.54984" lon="-1.36332">
        <ele>67</ele>
        <time>2022-02-27T20:11:38Z</time>
      </trkpt>
      <trkpt lat="46.54996" lon="-1.36343">
        <ele>66</ele>
        <time>2022-02-27T20:11:41Z</time>
      </trkpt>
      <trkpt lat="46.55012" lon="-1.36587">
        <ele>59</ele>
        <time>2022-02-27T20:12:21Z</time>
      </trkpt>
      <trkpt lat="46.55009" lon="-1.36756">
        <ele>61</ele>
        <time>2022-02-27T20:12:48Z</time>
      </trkpt>
      <trkpt lat="46.55039" lon="-1.36864">
        <ele>61</ele>
        <time>2022-02-27T20:13:07Z</time>
      </trkpt>
      <trkpt lat="46.55107" lon="-1.36971">
        <ele>61</ele>
        <time>2022-02-27T20:13:30Z</time>
      </trkpt>
      <trkpt lat="46.551" lon="-1.37056">
        <ele>62</ele>
        <time>2022-02-27T20:13:44Z</time>
      </trkpt>
      <trkpt lat="46.55083" lon="-1.37101">
        <ele>63</ele>
        <time>2022-02-27T20:13:52Z</time>
      </trkpt>
      <trkpt lat="46.55007" lon="-1.37244">
        <ele>65</ele>
        <time>2022-02-27T20:14:21Z</time>
      </trkpt>
      <trkpt lat="46.55009" lon="-1.37388">
        <ele>66</ele>
        <time>2022-02-27T20:14:44Z</time>
      </trkpt>
      <trkpt lat="46.54974" lon="-1.37383">
        <ele>66</ele>
        <time>2022-02-27T20:14:52Z</time>
      </trkpt>
      <trkpt lat="46.54955" lon="-1.37388">
        <ele>66</ele>
        <time>2022-02-27T20:14:57Z</time>
      </trkpt>
      <trkpt lat="46.54916" lon="-1.37431">
        <ele>67</ele>
        <time>2022-02-27T20:15:08Z</time>
      </trkpt>
      <trkpt lat="46.5494" lon="-1.3745">
        <ele>67</ele>
        <time>2022-02-27T20:15:15Z</time>
      </trkpt>
      <trkpt lat="46.54997" lon="-1.37431">
        <ele>66</ele>
        <time>2022-02-27T20:15:28Z</time>
      </trkpt>
      <trkpt lat="46.55013" lon="-1.37439">
        <ele>66</ele>
        <time>2022-02-27T20:15:32Z</time>
      </trkpt>
      <trkpt lat="46.54987" lon="-1.37686">
        <ele>66</ele>
        <time>2022-02-27T20:16:13Z</time>
      </trkpt>
      <trkpt lat="46.54994" lon="-1.37821">
        <ele>66</ele>
        <time>2022-02-27T20:16:34Z</time>
      </trkpt>
      <trkpt lat="46.54929" lon="-1.38081">
        <ele>61</ele>
        <time>2022-02-27T20:17:19Z</time>
      </trkpt>
      <trkpt lat="46.54895" lon="-1.38724">
        <ele>41</ele>
        <time>2022-02-27T20:19:02Z</time>
      </trkpt>
      <trkpt lat="46.54902" lon="-1.38795">
        <ele>40</ele>
        <time>2022-02-27T20:19:14Z</time>
      </trkpt>
      <trkpt lat="46.54946" lon="-1.38882">
        <ele>39</ele>
        <time>2022-02-27T20:19:31Z</time>
      </trkpt>
      <trkpt lat="46.5497" lon="-1.39036">
        <ele>36</ele>
        <time>2022-02-27T20:19:56Z</time>
      </trkpt>
      <trkpt lat="46.55005" lon="-1.39085">
        <ele>35</ele>
        <time>2022-02-27T20:20:08Z</time>
      </trkpt>
      <trkpt lat="46.55017" lon="-1.39095">
        <ele>36</ele>
        <time>2022-02-27T20:20:11Z</time>
      </trkpt>
      <trkpt lat="46.55036" lon="-1.39102">
        <ele>38</ele>
        <time>2022-02-27T20:20:16Z</time>
      </trkpt>
      <trkpt lat="46.55075" lon="-1.391">
        <ele>41</ele>
        <time>2022-02-27T20:20:25Z</time>
      </trkpt>
      <trkpt lat="46.55096" lon="-1.39182">
        <ele>38</ele>
        <time>2022-02-27T20:20:39Z</time>
      </trkpt>
      <trkpt lat="46.55118" lon="-1.39207">
        <ele>38</ele>
        <time>2022-02-27T20:20:45Z</time>
      </trkpt>
      <trkpt lat="46.55152" lon="-1.39205">
        <ele>38</ele>
        <time>2022-02-27T20:20:53Z</time>
      </trkpt>
      <trkpt lat="46.5522" lon="-1.39209">
        <ele>38</ele>
        <time>2022-02-27T20:21:09Z</time>
      </trkpt>
      <trkpt lat="46.55255" lon="-1.39223">
        <ele>38</ele>
        <time>2022-02-27T20:21:18Z</time>
      </trkpt>
      <trkpt lat="46.5529" lon="-1.39199">
        <ele>40</ele>
        <time>2022-02-27T20:21:27Z</time>
      </trkpt>
      <trkpt lat="46.55338" lon="-1.39223">
        <ele>40</ele>
        <time>2022-02-27T20:21:39Z</time>
      </trkpt>
      <trkpt lat="46.55442" lon="-1.39188">
        <ele>40</ele>
        <time>2022-02-27T20:22:03Z</time>
      </trkpt>
      <trkpt lat="46.55551" lon="-1.39108">
        <ele>42</ele>
        <time>2022-02-27T20:22:32Z</time>
      </trkpt>
      <trkpt lat="46.55581" lon="-1.39041">
        <ele>43</ele>
        <time>2022-02-27T20:22:45Z</time>
      </trkpt>
      <trkpt lat="46.55619" lon="-1.38977">
        <ele>44</ele>
        <time>2022-02-27T20:22:58Z</time>
      </trkpt>
      <trkpt lat="46.55697" lon="-1.38903">
        <ele>44</ele>
        <time>2022-02-27T20:23:20Z</time>
      </trkpt>
      <trkpt lat="46.55763" lon="-1.38822">
        <ele>46</ele>
        <time>2022-02-27T20:23:40Z</time>
      </trkpt>
      <trkpt lat="46.55856" lon="-1.38827">
        <ele>51</ele>
        <time>2022-02-27T20:24:02Z</time>
      </trkpt>
      <trkpt lat="46.55847" lon="-1.38901">
        <ele>49</ele>
        <time>2022-02-27T20:24:14Z</time>
      </trkpt>
      <trkpt lat="46.55824" lon="-1.39008">
        <ele>47</ele>
        <time>2022-02-27T20:24:32Z</time>
      </trkpt>
      <trkpt lat="46.5579" lon="-1.39326">
        <ele>49</ele>
        <time>2022-02-27T20:25:24Z</time>
      </trkpt>
      <trkpt lat="46.55792" lon="-1.39429">
        <ele>46</ele>
        <time>2022-02-27T20:25:40Z</time>
      </trkpt>
      <trkpt lat="46.55803" lon="-1.39515">
        <ele>46</ele>
        <time>2022-02-27T20:25:54Z</time>
      </trkpt>
      <trkpt lat="46.55801" lon="-1.39637">
        <ele>44</ele>
        <time>2022-02-27T20:26:14Z</time>
      </trkpt>
      <trkpt lat="46.55809" lon="-1.39658">
        <ele>44</ele>
        <time>2022-02-27T20:26:18Z</time>
      </trkpt>
      <trkpt lat="46.55861" lon="-1.39676">
        <ele>48</ele>
        <time>2022-02-27T20:26:30Z</time>
      </trkpt>
      <trkpt lat="46.55853" lon="-1.39741">
        <ele>47</ele>
        <time>2022-02-27T20:26:41Z</time>
      </trkpt>
      <trkpt lat="46.55864" lon="-1.39813">
        <ele>45</ele>
        <time>2022-02-27T20:26:53Z</time>
      </trkpt>
      <trkpt lat="46.55898" lon="-1.39863">
        <ele>44</ele>
        <time>2022-02-27T20:27:04Z</time>
      </trkpt>
      <trkpt lat="46.55944" lon="-1.39867">
        <ele>46</ele>
        <time>2022-02-27T20:27:15Z</time>
      </trkpt>
      <trkpt lat="46.55969" lon="-1.39895">
        <ele>46</ele>
        <time>2022-02-27T20:27:22Z</time>
      </trkpt>
      <trkpt lat="46.55973" lon="-1.40001">
        <ele>47</ele>
        <time>2022-02-27T20:27:39Z</time>
      </trkpt>
      <trkpt lat="46.56028" lon="-1.40034">
        <ele>52</ele>
        <time>2022-02-27T20:27:53Z</time>
      </trkpt>
      <trkpt lat="46.5602" lon="-1.40148">
        <ele>50</ele>
        <time>2022-02-27T20:28:12Z</time>
      </trkpt>
      <trkpt lat="46.56112" lon="-1.40282">
        <ele>53</ele>
        <time>2022-02-27T20:28:42Z</time>
      </trkpt>
      <trkpt lat="46.5623" lon="-1.40538">
        <ele>49</ele>
        <time>2022-02-27T20:29:31Z</time>
      </trkpt>
      <trkpt lat="46.5633" lon="-1.40679">
        <ele>51</ele>
        <time>2022-02-27T20:30:04Z</time>
      </trkpt>
      <trkpt lat="46.56293" lon="-1.40783">
        <ele>49</ele>
        <time>2022-02-27T20:30:23Z</time>
      </trkpt>
      <trkpt lat="46.5625" lon="-1.40843">
        <ele>46</ele>
        <time>2022-02-27T20:30:37Z</time>
      </trkpt>
      <trkpt lat="46.56263" lon="-1.40893">
        <ele>49</ele>
        <time>2022-02-27T20:30:45Z</time>
      </trkpt>
      <trkpt lat="46.56295" lon="-1.40945">
        <ele>50</ele>
        <time>2022-02-27T20:30:56Z</time>
      </trkpt>
      <trkpt lat="46.56354" lon="-1.41003">
        <ele>51</ele>
        <time>2022-02-27T20:31:13Z</time>
      </trkpt>
      <trkpt lat="46.56403" lon="-1.41067">
        <ele>52</ele>
        <time>2022-02-27T20:31:28Z</time>
      </trkpt>
      <trkpt lat="46.56476" lon="-1.41224">
        <ele>56</ele>
        <time>2022-02-27T20:31:59Z</time>
      </trkpt>
      <trkpt lat="46.56426" lon="-1.41276">
        <ele>60</ele>
        <time>2022-02-27T20:32:13Z</time>
      </trkpt>
      <trkpt lat="46.56122" lon="-1.41367">
        <ele>69</ele>
        <time>2022-02-27T20:33:26Z</time>
      </trkpt>
      <trkpt lat="46.56007" lon="-1.41561">
        <ele>68</ele>
        <time>2022-02-27T20:34:07Z</time>
      </trkpt>
      <trkpt lat="46.55971" lon="-1.41613">
        <ele>69</ele>
        <time>2022-02-27T20:34:19Z</time>
      </trkpt>
      <trkpt lat="46.5595" lon="-1.41671">
        <ele>70</ele>
        <time>2022-02-27T20:34:29Z</time>
      </trkpt>
      <trkpt lat="46.5588" lon="-1.41776">
        <ele>72</ele>
        <time>2022-02-27T20:34:53Z</time>
      </trkpt>
      <trkpt lat="46.55879" lon="-1.41927">
        <ele>76</ele>
        <time>2022-02-27T20:35:17Z</time>
      </trkpt>
      <trkpt lat="46.55751" lon="-1.42703">
        <ele>75</ele>
        <time>2022-02-27T20:37:25Z</time>
      </trkpt>
      <trkpt lat="46.5588" lon="-1.42683">
        <ele>74</ele>
        <time>2022-02-27T20:37:55Z</time>
      </trkpt>
      <trkpt lat="46.55949" lon="-1.42629">
        <ele>75</ele>
        <time>2022-02-27T20:38:14Z</time>
      </trkpt>
      <trkpt lat="46.55988" lon="-1.42726">
        <ele>74</ele>
        <time>2022-02-27T20:38:32Z</time>
      </trkpt>
      <trkpt lat="46.56086" lon="-1.42784">
        <ele>76</ele>
        <time>2022-02-27T20:38:56Z</time>
      </trkpt>
      <trkpt lat="46.56179" lon="-1.42816">
        <ele>76</ele>
        <time>2022-02-27T20:39:19Z</time>
      </trkpt>
      <trkpt lat="46.56291" lon="-1.42902">
        <ele>76</ele>
        <time>2022-02-27T20:39:48Z</time>
      </trkpt>
      <trkpt lat="46.5637" lon="-1.4294">
        <ele>75</ele>
        <time>2022-02-27T20:40:08Z</time>
      </trkpt>
      <trkpt lat="46.5649" lon="-1.42935">
        <ele>72</ele>
        <time>2022-02-27T20:40:36Z</time>
      </trkpt>
      <trkpt lat="46.56576" lon="-1.42666">
        <ele>70</ele>
        <time>2022-02-27T20:41:23Z</time>
      </trkpt>
      <trkpt lat="46.56668" lon="-1.42457">
        <ele>69</ele>
        <time>2022-02-27T20:42:03Z</time>
      </trkpt>
      <trkpt lat="46.56826" lon="-1.42624">
        <ele>67</ele>
        <time>2022-02-27T20:42:49Z</time>
      </trkpt>
      <trkpt lat="46.56864" lon="-1.42739">
        <ele>70</ele>
        <time>2022-02-27T20:43:09Z</time>
      </trkpt>
      <trkpt lat="46.56864" lon="-1.42873">
        <ele>71</ele>
        <time>2022-02-27T20:43:31Z</time>
      </trkpt>
      <trkpt lat="46.56849" lon="-1.42895">
        <ele>72</ele>
        <time>2022-02-27T20:43:36Z</time>
      </trkpt>
      <trkpt lat="46.5688" lon="-1.43027">
        <ele>73</ele>
        <time>2022-02-27T20:43:58Z</time>
      </trkpt>
      <trkpt lat="46.5694" lon="-1.43182">
        <ele>75</ele>
        <time>2022-02-27T20:44:27Z</time>
      </trkpt>
      <trkpt lat="46.57053" lon="-1.4327">
        <ele>75</ele>
        <time>2022-02-27T20:44:57Z</time>
      </trkpt>
      <trkpt lat="46.57116" lon="-1.43407">
        <ele>72</ele>
        <time>2022-02-27T20:45:23Z</time>
      </trkpt>
      <trkpt lat="46.57124" lon="-1.43589">
        <ele>68</ele>
        <time>2022-02-27T20:45:53Z</time>
      </trkpt>
      <trkpt lat="46.57161" lon="-1.4364">
        <ele>68</ele>
        <time>2022-02-27T20:46:04Z</time>
      </trkpt>
      <trkpt lat="46.57201" lon="-1.43747">
        <ele>66</ele>
        <time>2022-02-27T20:46:24Z</time>
      </trkpt>
      <trkpt lat="46.57266" lon="-1.43743">
        <ele>67</ele>
        <time>2022-02-27T20:46:39Z</time>
      </trkpt>
      <trkpt lat="46.57259" lon="-1.4385">
        <ele>68</ele>
        <time>2022-02-27T20:46:56Z</time>
      </trkpt>
      <trkpt lat="46.57237" lon="-1.4405">
        <ele>65</ele>
        <time>2022-02-27T20:47:29Z</time>
      </trkpt>
      <trkpt lat="46.57244" lon="-1.44134">
        <ele>63</ele>
        <time>2022-02-27T20:47:43Z</time>
      </trkpt>
      <trkpt lat="46.57378" lon="-1.44125">
        <ele>64</ele>
        <time>2022-02-27T20:48:14Z</time>
      </trkpt>
      <trkpt lat="46.57436" lon="-1.44146">
        <ele>64</ele>
        <time>2022-02-27T20:48:28Z</time>
      </trkpt>
      <trkpt lat="46.57542" lon="-1.44049">
        <ele>64</ele>
        <time>2022-02-27T20:48:57Z</time>
      </trkpt>
      <trkpt lat="46.57653" lon="-1.44043">
        <ele>61</ele>
        <time>2022-02-27T20:49:23Z</time>
      </trkpt>
      <trkpt lat="46.57693" lon="-1.43976">
        <ele>60</ele>
        <time>2022-02-27T20:49:37Z</time>
      </trkpt>
      <trkpt lat="46.57885" lon="-1.43961">
        <ele>63</ele>
        <time>2022-02-27T20:50:22Z</time>
      </trkpt>
      <trkpt lat="46.57922" lon="-1.43934">
        <ele>64</ele>
        <time>2022-02-27T20:50:32Z</time>
      </trkpt>
      <trkpt lat="46.57957" lon="-1.43953">
        <ele>62</ele>
        <time>2022-02-27T20:50:41Z</time>
      </trkpt>
      <trkpt lat="46.58031" lon="-1.43855">
        <ele>68</ele>
        <time>2022-02-27T20:51:04Z</time>
      </trkpt>
      <trkpt lat="46.58281" lon="-1.43767">
        <ele>72</ele>
        <time>2022-02-27T20:52:04Z</time>
      </trkpt>
      <trkpt lat="46.58439" lon="-1.4401">
        <ele>70</ele>
        <time>2022-02-27T20:52:58Z</time>
      </trkpt>
      <trkpt lat="46.58594" lon="-1.44143">
        <ele>67</ele>
        <time>2022-02-27T20:53:40Z</time>
      </trkpt>
      <trkpt lat="46.58746" lon="-1.44355">
        <ele>61</ele>
        <time>2022-02-27T20:54:29Z</time>
      </trkpt>
      <trkpt lat="46.58683" lon="-1.44528">
        <ele>54</ele>
        <time>2022-02-27T20:55:00Z</time>
      </trkpt>
      <trkpt lat="46.58794" lon="-1.44647">
        <ele>56</ele>
        <time>2022-02-27T20:55:32Z</time>
      </trkpt>
      <trkpt lat="46.59032" lon="-1.44453">
        <ele>65</ele>
        <time>2022-02-27T20:56:36Z</time>
      </trkpt>
      <trkpt lat="46.59055" lon="-1.44534">
        <ele>66</ele>
        <time>2022-02-27T20:56:50Z</time>
      </trkpt>
      <trkpt lat="46.59119" lon="-1.44622">
        <ele>68</ele>
        <time>2022-02-27T20:57:11Z</time>
      </trkpt>
      <trkpt lat="46.5919" lon="-1.44571">
        <ele>67</ele>
        <time>2022-02-27T20:57:29Z</time>
      </trkpt>
      <trkpt lat="46.59236" lon="-1.44656">
        <ele>68</ele>
        <time>2022-02-27T20:57:47Z</time>
      </trkpt>
      <trkpt lat="46.59296" lon="-1.44692">
        <ele>67</ele>
        <time>2022-02-27T20:58:02Z</time>
      </trkpt>
      <trkpt lat="46.59332" lon="-1.44759">
        <ele>67</ele>
        <time>2022-02-27T20:58:15Z</time>
      </trkpt>
      <trkpt lat="46.59434" lon="-1.44773">
        <ele>62</ele>
        <time>2022-02-27T20:58:39Z</time>
      </trkpt>
      <trkpt lat="46.59516" lon="-1.45144">
        <ele>51</ele>
        <time>2022-02-27T20:59:42Z</time>
      </trkpt>
      <trkpt lat="46.59556" lon="-1.45168">
        <ele>52</ele>
        <time>2022-02-27T20:59:52Z</time>
      </trkpt>
      <trkpt lat="46.59521" lon="-1.45223">
        <ele>52</ele>
        <time>2022-02-27T21:00:04Z</time>
      </trkpt>
      <trkpt lat="46.59521" lon="-1.45274">
        <ele>53</ele>
        <time>2022-02-27T21:00:12Z</time>
      </trkpt>
      <trkpt lat="46.59531" lon="-1.45307">
        <ele>54</ele>
        <time>2022-02-27T21:00:18Z</time>
      </trkpt>
      <trkpt lat="46.59533" lon="-1.45328">
        <ele>55</ele>
        <time>2022-02-27T21:00:21Z</time>
      </trkpt>
    </trkseg>
  </trk>
</gpx>